IIA297 VHHH-FIMP

Flight info

Callsign IIA297
Flight time 8h 56m
Altitude 36000
Route PECAN V10 ALLEY V31 SURFA V11 IDOSI P901 IKELA/K0900F360 A1 PAPRA/N0485F360 R575 SMU W32 DORNA Y3 PUT P627 BEDAX/N0477F380 P627 KALBI UT628 DUNBU/N0472F400 UT628 UVARI UVARI1E
Aircraft A339/H-SADE1E2E3GHIJ3J5M1P2RWXY/LB2D1

Departure

Time 2026-05-08 13:20
Airport Hong Kong International Airport (VHHH)

Arrival

Time 2026-05-08 22:16
Airport Sir Seewoosagur Ramgoolam International Airport (FIMP)
Time Latitude Longitude Altitude Speed Heading
2026-05-08 12:49 22.31434 113.92628 43 ft 0 kts 206°
2026-05-08 12:52 22.31478 113.92556 43 ft 0 kts 206°
2026-05-08 13:09 22.31484 113.92559 43 ft 4 kts 206°
2026-05-08 13:10 22.31508 113.92572 56 ft 4 kts 206°
2026-05-08 13:10 22.31530 113.92583 39 ft 3 kts 207°
2026-05-08 13:10 22.31551 113.92595 40 ft 4 kts 242°
2026-05-08 13:10 22.31558 113.92613 40 ft 4 kts 289°
2026-05-08 13:11 22.31548 113.92638 38 ft 2 kts 296°
2026-05-08 13:11 22.31547 113.92640 38 ft 0 kts 296°
2026-05-08 13:15 22.31549 113.92636 37 ft 3 kts 296°
2026-05-08 13:15 22.31563 113.92605 41 ft 6 kts 295°
2026-05-08 13:15 22.31588 113.92549 43 ft 9 kts 296°
2026-05-08 13:16 22.31622 113.92491 43 ft 9 kts 313°
2026-05-08 13:16 22.31674 113.92494 43 ft 8 kts 24°
2026-05-08 13:16 22.31705 113.92547 43 ft 12 kts 69°
2026-05-08 13:16 22.31735 113.92646 43 ft 15 kts 69°
2026-05-08 13:17 22.31769 113.92749 43 ft 15 kts 71°
2026-05-08 13:17 22.31832 113.92816 43 ft 13 kts
2026-05-08 13:17 22.31903 113.92792 43 ft 5 kts 339°
2026-05-08 13:17 22.31919 113.92785 42 ft 1 kts 339°
2026-05-08 13:18 22.31929 113.92781 42 ft 2 kts 339°
2026-05-08 13:18 22.31960 113.92769 42 ft 7 kts 341°
2026-05-08 13:18 22.32014 113.92747 41 ft 9 kts 334°
2026-05-08 13:18 22.32027 113.92698 42 ft 6 kts 270°
2026-05-08 13:19 22.32016 113.92653 42 ft 10 kts 254°
2026-05-08 13:19 22.31915 113.92340 43 ft 82 kts 251°
2026-05-08 13:19 22.31648 113.91514 44 ft 148 kts 250°
2026-05-08 13:19 22.31249 113.90289 68 ft 193 kts 251°
2026-05-08 13:20 22.30794 113.88926 672 ft 193 kts 251°
2026-05-08 13:20 22.30327 113.87535 1246 ft 200 kts 250°
2026-05-08 13:20 22.29869 113.86140 1993 ft 197 kts 252°
2026-05-08 13:20 22.29414 113.84678 2362 ft 214 kts 252°
2026-05-08 13:21 22.28928 113.83116 2825 ft 223 kts 251°
2026-05-08 13:21 22.28428 113.81534 3469 ft 222 kts 251°
2026-05-08 13:21 22.27921 113.79953 4069 ft 224 kts 251°
2026-05-08 13:21 22.27408 113.78363 4682 ft 225 kts 250°
2026-05-08 13:22 22.26889 113.76759 5232 ft 227 kts 250°
2026-05-08 13:22 22.26367 113.75149 5807 ft 228 kts 251°
2026-05-08 13:22 22.25666 113.73608 6285 ft 231 kts 231°
2026-05-08 13:22 22.24431 113.72524 6793 ft 231 kts 209°
2026-05-08 13:23 22.22921 113.71785 6992 ft 248 kts 196°
2026-05-08 13:23 22.21159 113.71562 7207 ft 262 kts 176°
2026-05-08 13:23 22.19359 113.71908 7685 ft 264 kts 164°
2026-05-08 13:23 22.17615 113.72557 8164 ft 267 kts 158°
2026-05-08 13:24 22.15897 113.73340 8638 ft 269 kts 156°
2026-05-08 13:24 22.14167 113.74177 8753 ft 276 kts 154°
2026-05-08 13:24 22.12435 113.75214 8879 ft 293 kts 147°
2026-05-08 13:24 22.10757 113.76482 8987 ft 295 kts 142°
2026-05-08 13:25 22.09173 113.77895 9018 ft 297 kts 135°
2026-05-08 13:25 22.07831 113.79591 9432 ft 298 kts 125°
2026-05-08 13:25 22.06761 113.81506 9961 ft 300 kts 116°
2026-05-08 13:25 22.05957 113.83612 10226 ft 311 kts 107°
2026-05-08 13:26 22.05446 113.85932 10361 ft 326 kts 100°
2026-05-08 13:26 22.05000 113.88384 10499 ft 340 kts 101°
2026-05-08 13:26 22.04271 113.90846 10686 ft 350 kts 114°
2026-05-08 13:26 22.03084 113.93150 11081 ft 353 kts 123°
2026-05-08 13:27 22.01617 113.95282 11496 ft 356 kts 130°
2026-05-08 13:27 21.99923 113.97239 11907 ft 358 kts 136°
2026-05-08 13:27 21.98033 113.99005 12337 ft 360 kts 141°
2026-05-08 13:27 21.96136 114.00726 12759 ft 363 kts 140°
2026-05-08 13:28 21.94134 114.02398 13138 ft 365 kts 149°
2026-05-08 13:28 21.91844 114.03577 13549 ft 366 kts 162°
2026-05-08 13:28 21.89361 114.04192 13940 ft 367 kts 172°
2026-05-08 13:28 21.86833 114.04633 14315 ft 369 kts 172°
2026-05-08 13:29 21.84298 114.05096 14703 ft 371 kts 172°
2026-05-08 13:29 21.81752 114.05573 15091 ft 372 kts 172°
2026-05-08 13:29 21.79193 114.06059 15446 ft 375 kts 172°
2026-05-08 13:29 21.76618 114.06550 15821 ft 377 kts 172°
2026-05-08 13:30 21.74030 114.07044 16177 ft 379 kts 172°
2026-05-08 13:30 21.71430 114.07539 16539 ft 381 kts 172°
2026-05-08 13:30 21.68814 114.08036 16902 ft 383 kts 172°
2026-05-08 13:30 21.66177 114.08448 17222 ft 383 kts 178°
2026-05-08 13:31 21.63514 114.08427 17576 ft 383 kts 187°
2026-05-08 13:31 21.60895 114.07953 17939 ft 382 kts 196°
2026-05-08 13:31 21.58309 114.07246 18275 ft 384 kts 196°
2026-05-08 13:31 21.55705 114.06550 18566 ft 387 kts 195°
2026-05-08 13:32 21.53083 114.05864 18836 ft 389 kts 195°
2026-05-08 13:32 21.50441 114.05179 19116 ft 392 kts 195°
2026-05-08 13:32 21.47781 114.04491 19395 ft 395 kts 195°
2026-05-08 13:32 21.45139 114.03673 19656 ft 396 kts 202°
2026-05-08 13:33 21.42612 114.02487 19939 ft 397 kts 209°
2026-05-08 13:33 21.40245 114.00961 20214 ft 398 kts 216°
2026-05-08 13:33 21.37972 113.99314 20477 ft 401 kts 216°
2026-05-08 13:33 21.35643 113.97647 20754 ft 404 kts 215°
2026-05-08 13:34 21.33292 113.95980 21041 ft 407 kts 215°
2026-05-08 13:34 21.30923 113.94305 21318 ft 410 kts 215°
2026-05-08 13:34 21.28533 113.92618 21591 ft 412 kts 215°
2026-05-08 13:34 21.26129 113.90921 21873 ft 415 kts 215°
2026-05-08 13:35 21.23708 113.89213 22158 ft 418 kts 215°
2026-05-08 13:35 21.21270 113.87492 22440 ft 421 kts 215°
2026-05-08 13:35 21.18816 113.85761 22736 ft 424 kts 215°
2026-05-08 13:35 21.16347 113.84021 23012 ft 427 kts 215°
2026-05-08 13:36 21.13862 113.82268 23303 ft 429 kts 215°
2026-05-08 13:36 21.11357 113.80504 23579 ft 432 kts 215°
2026-05-08 13:36 21.08836 113.78740 23875 ft 433 kts 214°
2026-05-08 13:36 21.06224 113.77121 24182 ft 434 kts 211°
2026-05-08 13:37 21.03579 113.75550 24487 ft 435 kts 211°
2026-05-08 13:37 21.00929 113.73970 24785 ft 436 kts 211°
2026-05-08 13:37 20.98277 113.72382 25082 ft 438 kts 211°
2026-05-08 13:37 20.95619 113.70790 25379 ft 439 kts 211°
2026-05-08 13:38 20.92950 113.69191 25658 ft 440 kts 211°
2026-05-08 13:38 20.90276 113.67590 25934 ft 441 kts 211°
2026-05-08 13:38 20.87593 113.65985 26227 ft 442 kts 211°
2026-05-08 13:38 20.84900 113.64374 26490 ft 444 kts 211°
2026-05-08 13:39 20.82199 113.62759 26771 ft 445 kts 211°
2026-05-08 13:39 20.79490 113.61140 27029 ft 447 kts 210°
2026-05-08 13:39 20.76772 113.59517 27302 ft 448 kts 210°
2026-05-08 13:39 20.74043 113.57888 27555 ft 450 kts 210°
2026-05-08 13:40 20.71305 113.56253 27819 ft 451 kts 210°
2026-05-08 13:40 20.68557 113.54614 28078 ft 453 kts 210°
2026-05-08 13:40 20.65840 113.52994 28344 ft 454 kts 210°
2026-05-08 13:40 20.63077 113.51347 28588 ft 456 kts 210°
2026-05-08 13:41 20.60267 113.49673 28839 ft 457 kts 210°
2026-05-08 13:41 20.57486 113.48017 29084 ft 459 kts 210°
2026-05-08 13:41 20.54729 113.46376 29330 ft 460 kts 210°
2026-05-08 13:41 20.51889 113.44686 29588 ft 462 kts 210°
2026-05-08 13:42 20.49081 113.43015 29819 ft 464 kts 210°
2026-05-08 13:42 20.46295 113.41358 30052 ft 465 kts 210°
2026-05-08 13:42 20.43466 113.39678 30270 ft 467 kts 210°
2026-05-08 13:42 20.40624 113.37990 30482 ft 468 kts 210°
2026-05-08 13:43 20.37772 113.36297 30693 ft 470 kts 210°
2026-05-08 13:43 20.34908 113.34597 30895 ft 472 kts 210°
2026-05-08 13:43 20.32034 113.32892 31116 ft 474 kts 210°
2026-05-08 13:43 20.29150 113.31182 31337 ft 475 kts 210°
2026-05-08 13:44 20.26257 113.29468 31531 ft 477 kts 210°
2026-05-08 13:44 20.23346 113.27743 31745 ft 479 kts 210°
2026-05-08 13:44 20.20426 113.26014 31930 ft 481 kts 210°
2026-05-08 13:44 20.17498 113.24281 32138 ft 483 kts 211°
2026-05-08 13:45 20.14558 113.22542 32329 ft 484 kts 211°
2026-05-08 13:45 20.11606 113.20795 32498 ft 486 kts 211°
2026-05-08 13:45 20.08646 113.19045 32658 ft 487 kts 211°
2026-05-08 13:45 20.05677 113.17291 32786 ft 489 kts 211°
2026-05-08 13:46 20.02702 113.15534 32927 ft 490 kts 211°
2026-05-08 13:46 19.99717 113.13771 33042 ft 491 kts 211°
2026-05-08 13:46 19.96724 113.12005 33147 ft 492 kts 211°
2026-05-08 13:46 19.93726 113.10237 33250 ft 493 kts 211°
2026-05-08 13:47 19.87715 113.06693 33428 ft 495 kts 211°
2026-05-08 13:47 19.84698 113.04916 33534 ft 495 kts 211°
2026-05-08 13:47 19.81686 113.03142 33650 ft 495 kts 211°
2026-05-08 13:48 19.78678 113.01372 33801 ft 495 kts 211°
2026-05-08 13:48 19.75670 112.99602 33920 ft 494 kts 211°
2026-05-08 13:48 19.72664 112.97834 34047 ft 493 kts 211°
2026-05-08 13:48 19.69663 112.96070 34162 ft 493 kts 211°
2026-05-08 13:49 19.66664 112.94308 34279 ft 492 kts 211°
2026-05-08 13:49 19.63674 112.92552 34395 ft 492 kts 211°
2026-05-08 13:49 19.60681 112.90795 34509 ft 491 kts 211°
2026-05-08 13:49 19.57694 112.89041 34614 ft 491 kts 211°
2026-05-08 13:50 19.54708 112.87290 34734 ft 490 kts 211°
2026-05-08 13:50 19.51730 112.85544 34838 ft 490 kts 211°
2026-05-08 13:50 19.45763 112.82046 35022 ft 490 kts 211°
2026-05-08 13:51 19.42821 112.80323 35123 ft 490 kts 211°
2026-05-08 13:51 19.39836 112.78576 35225 ft 490 kts 211°
2026-05-08 13:51 19.33878 112.75090 35423 ft 489 kts 211°
2026-05-08 13:52 19.28160 112.71230 35608 ft 487 kts 218°
2026-05-08 13:52 19.25411 112.69137 35716 ft 487 kts 218°
2026-05-08 13:52 19.22657 112.67052 35815 ft 487 kts 218°
2026-05-08 13:53 19.19903 112.64974 35918 ft 487 kts 218°
2026-05-08 13:53 19.17144 112.62896 35973 ft 487 kts 218°
2026-05-08 13:53 19.11630 112.58748 35974 ft 486 kts 218°
2026-05-08 13:54 19.06115 112.54603 35970 ft 487 kts 218°
2026-05-08 13:54 19.00595 112.50456 35974 ft 487 kts 218°
2026-05-08 13:55 18.95081 112.46301 35971 ft 487 kts 218°
2026-05-08 13:56 18.86819 112.40060 35971 ft 487 kts 218°
2026-05-08 13:56 18.81306 112.35903 35968 ft 487 kts 218°
2026-05-08 13:57 18.75791 112.31749 35967 ft 487 kts 218°
2026-05-08 13:57 18.70290 112.27579 35972 ft 486 kts 220°
2026-05-08 13:58 18.65380 112.22725 35966 ft 483 kts 231°
2026-05-08 13:58 18.61426 112.17046 35963 ft 480 kts 239°
2026-05-08 13:59 18.57749 112.11172 35962 ft 480 kts 238°
2026-05-08 13:59 18.54040 112.05309 35958 ft 481 kts 238°
2026-05-08 14:00 18.50954 112.00436 35960 ft 481 kts 238°
2026-05-08 14:00 18.46636 111.93624 35964 ft 481 kts 238°
2026-05-08 14:01 18.43519 111.88709 35965 ft 482 kts 238°
2026-05-08 14:01 18.39797 111.82846 35965 ft 482 kts 238°
2026-05-08 14:02 18.36071 111.76980 35962 ft 482 kts 238°
2026-05-08 14:02 18.32365 111.71153 35958 ft 482 kts 238°
2026-05-08 14:03 18.28632 111.65290 35963 ft 482 kts 238°
2026-05-08 14:03 18.24896 111.59425 35971 ft 483 kts 238°
2026-05-08 14:04 18.21157 111.53562 35959 ft 483 kts 238°
2026-05-08 14:04 18.17413 111.47696 35962 ft 483 kts 238°
2026-05-08 14:05 18.13665 111.41829 35960 ft 483 kts 238°
2026-05-08 14:05 18.09915 111.35965 35964 ft 483 kts 238°
2026-05-08 14:06 18.06161 111.30099 35961 ft 484 kts 238°
2026-05-08 14:06 18.02405 111.24235 35961 ft 484 kts 237°
2026-05-08 14:07 17.98644 111.18370 35961 ft 484 kts 237°
2026-05-08 14:07 17.94881 111.12506 35961 ft 484 kts 237°
2026-05-08 14:08 17.91117 111.06647 35961 ft 484 kts 237°
2026-05-08 14:08 17.87347 111.00782 35961 ft 484 kts 237°
2026-05-08 14:09 17.83576 110.94921 35960 ft 485 kts 237°
2026-05-08 14:09 17.79801 110.89060 35957 ft 485 kts 237°
2026-05-08 14:10 17.76021 110.83195 35954 ft 485 kts 237°
2026-05-08 14:10 17.72238 110.77330 35955 ft 486 kts 237°
2026-05-08 14:11 17.68449 110.71464 35957 ft 486 kts 237°
2026-05-08 14:11 17.64657 110.65595 35958 ft 486 kts 237°
2026-05-08 14:12 17.60861 110.59727 35959 ft 486 kts 237°
2026-05-08 14:12 17.57061 110.53858 35959 ft 487 kts 237°
2026-05-08 14:13 17.53258 110.47991 35958 ft 487 kts 237°
2026-05-08 14:13 17.49453 110.42122 35958 ft 487 kts 237°
2026-05-08 14:14 17.45669 110.36292 35959 ft 487 kts 236°
2026-05-08 14:14 17.41859 110.30426 35959 ft 487 kts 236°
2026-05-08 14:15 17.38070 110.24537 35955 ft 487 kts 237°
2026-05-08 14:15 17.34304 110.18637 35959 ft 487 kts 237°
2026-05-08 14:16 17.30532 110.12744 35957 ft 487 kts 237°
2026-05-08 14:16 17.26754 110.06853 35956 ft 487 kts 237°
2026-05-08 14:17 17.22975 110.00965 35956 ft 488 kts 237°
2026-05-08 14:17 17.19194 109.95079 35957 ft 488 kts 237°
2026-05-08 14:18 17.15408 109.89191 35956 ft 488 kts 237°
2026-05-08 14:18 17.11618 109.83300 35956 ft 488 kts 237°
2026-05-08 14:19 17.07823 109.77408 35950 ft 489 kts 237°
2026-05-08 14:19 17.04024 109.71516 35955 ft 489 kts 237°
2026-05-08 14:20 17.00249 109.65663 35952 ft 489 kts 237°
2026-05-08 14:20 16.96417 109.59729 35953 ft 490 kts 237°
2026-05-08 14:21 16.92605 109.53831 35956 ft 490 kts 237°
2026-05-08 14:21 16.88791 109.47933 35953 ft 490 kts 237°
2026-05-08 14:22 16.84972 109.42034 35954 ft 490 kts 237°
2026-05-08 14:22 16.81180 109.36178 35959 ft 490 kts 237°
2026-05-08 14:23 16.77365 109.30280 35958 ft 490 kts 237°
2026-05-08 14:23 16.73546 109.24383 35955 ft 490 kts 237°
2026-05-08 14:24 16.69726 109.18489 35957 ft 490 kts 237°
2026-05-08 14:24 16.65904 109.12598 35956 ft 490 kts 237°
2026-05-08 14:25 16.62082 109.06711 35958 ft 490 kts 237°
2026-05-08 14:25 16.58257 109.00825 35957 ft 490 kts 237°
2026-05-08 14:26 16.54426 108.94950 35958 ft 490 kts 236°
2026-05-08 14:26 16.50538 108.89122 35957 ft 490 kts 236°
2026-05-08 14:27 16.46654 108.83289 35956 ft 490 kts 236°
2026-05-08 14:27 16.42770 108.77459 35955 ft 490 kts 236°
2026-05-08 14:28 16.38878 108.71639 35954 ft 490 kts 236°
2026-05-08 14:28 16.34985 108.65825 35956 ft 489 kts 236°
2026-05-08 14:29 16.31181 108.59954 35957 ft 489 kts 237°
2026-05-08 14:29 16.27409 108.54062 35958 ft 489 kts 237°
2026-05-08 14:30 16.23625 108.48187 35958 ft 489 kts 237°
2026-05-08 14:30 16.19836 108.42321 35960 ft 488 kts 237°
2026-05-08 14:31 16.16048 108.36461 35963 ft 488 kts 237°
2026-05-08 14:31 16.12258 108.30603 35965 ft 488 kts 237°
2026-05-08 14:32 16.06716 108.21788 35967 ft 487 kts 242°
2026-05-08 14:32 16.04020 108.15363 35964 ft 485 kts 253°
2026-05-08 14:33 16.02147 108.08632 35966 ft 484 kts 255°
2026-05-08 14:33 16.00267 108.01909 35969 ft 485 kts 255°
2026-05-08 14:34 15.98377 107.95184 35973 ft 485 kts 255°
2026-05-08 14:34 15.96488 107.88462 35979 ft 485 kts 255°
2026-05-08 14:35 15.94639 107.81730 35988 ft 484 kts 255°
2026-05-08 14:35 15.92815 107.74995 35989 ft 484 kts 255°
2026-05-08 14:36 15.90982 107.68263 35995 ft 484 kts 255°
2026-05-08 14:36 15.89116 107.61544 36002 ft 484 kts 254°
2026-05-08 14:37 15.87179 107.54845 36000 ft 484 kts 254°
2026-05-08 14:37 15.85248 107.48151 36012 ft 484 kts 254°
2026-05-08 14:38 15.83324 107.41455 36016 ft 484 kts 255°
2026-05-08 14:38 15.81400 107.34761 36012 ft 484 kts 255°
2026-05-08 14:39 15.79473 107.28068 36011 ft 484 kts 255°
2026-05-08 14:39 15.77303 107.21460 36011 ft 485 kts 245°
2026-05-08 14:40 15.73539 107.15665 36001 ft 488 kts 228°
2026-05-08 14:40 15.68484 107.10951 35993 ft 489 kts 221°
2026-05-08 14:41 15.63340 107.06327 35985 ft 490 kts 221°
2026-05-08 14:41 15.58194 107.01683 35975 ft 490 kts 221°
2026-05-08 14:42 15.53081 106.97074 35966 ft 491 kts 221°
2026-05-08 14:42 15.47920 106.92428 35957 ft 492 kts 221°
2026-05-08 14:43 15.42752 106.87779 35950 ft 493 kts 221°
2026-05-08 14:43 15.37577 106.83128 35942 ft 492 kts 221°
2026-05-08 14:44 15.32410 106.78486 35941 ft 492 kts 221°
2026-05-08 14:44 15.27238 106.73842 35936 ft 492 kts 221°
2026-05-08 14:45 15.22066 106.69202 35934 ft 492 kts 221°
2026-05-08 14:45 15.16887 106.64560 35939 ft 492 kts 221°
2026-05-08 14:46 15.11708 106.59918 35937 ft 493 kts 221°
2026-05-08 14:46 15.06526 106.55278 35937 ft 493 kts 221°
2026-05-08 14:47 15.01338 106.50636 35936 ft 493 kts 221°
2026-05-08 14:47 14.96154 106.46000 35934 ft 493 kts 221°
2026-05-08 14:48 14.91848 106.42152 35936 ft 492 kts 221°
2026-05-08 14:48 14.86668 106.37524 35925 ft 492 kts 221°
2026-05-08 14:49 14.81486 106.32910 35911 ft 492 kts 221°
2026-05-08 14:49 14.76302 106.28304 35902 ft 492 kts 221°
2026-05-08 14:50 14.71117 106.23697 35898 ft 491 kts 221°
2026-05-08 14:50 14.65932 106.19093 35886 ft 492 kts 221°
2026-05-08 14:51 14.60743 106.14488 35889 ft 492 kts 221°
2026-05-08 14:51 14.55589 106.09916 35886 ft 492 kts 221°
2026-05-08 14:52 14.47799 106.03013 35888 ft 492 kts 221°
2026-05-08 14:53 14.42603 105.98412 35891 ft 492 kts 221°
2026-05-08 14:53 14.37405 105.93813 35885 ft 492 kts 221°
2026-05-08 14:54 14.32205 105.89215 35883 ft 492 kts 221°
2026-05-08 14:54 14.27001 105.84616 35885 ft 492 kts 221°
2026-05-08 14:55 14.21802 105.80024 35884 ft 492 kts 221°
2026-05-08 14:55 14.16595 105.75428 35883 ft 492 kts 221°
2026-05-08 14:56 14.11392 105.70839 35883 ft 492 kts 221°
2026-05-08 14:56 14.06181 105.66261 35886 ft 492 kts 220°
2026-05-08 14:57 14.00951 105.61707 35885 ft 492 kts 220°
2026-05-08 14:57 13.95724 105.57155 35888 ft 492 kts 220°
2026-05-08 14:58 13.90507 105.52609 35886 ft 492 kts 220°
2026-05-08 14:58 13.85285 105.48062 35888 ft 491 kts 220°
2026-05-08 14:59 13.80086 105.43501 35886 ft 491 kts 223°
2026-05-08 14:59 13.73100 105.35876 35883 ft 490 kts 227°
2026-05-08 15:00 13.68467 105.30728 35884 ft 491 kts 227°
2026-05-08 15:00 13.63830 105.25587 35891 ft 490 kts 227°
2026-05-08 15:01 13.59190 105.20444 35895 ft 490 kts 227°
2026-05-08 15:01 13.54555 105.15307 35898 ft 490 kts 227°
2026-05-08 15:02 13.49921 105.10177 35896 ft 489 kts 227°
2026-05-08 15:02 13.45290 105.05052 35896 ft 489 kts 227°
2026-05-08 15:03 13.40661 104.99933 35899 ft 489 kts 227°
2026-05-08 15:03 13.36037 104.94822 35898 ft 488 kts 227°
2026-05-08 15:04 13.31413 104.89714 35898 ft 488 kts 227°
2026-05-08 15:04 13.26794 104.84615 35893 ft 488 kts 226°
2026-05-08 15:05 13.22174 104.79519 35892 ft 487 kts 226°
2026-05-08 15:05 13.17558 104.74429 35893 ft 487 kts 226°
2026-05-08 15:06 13.12943 104.69343 35891 ft 486 kts 226°
2026-05-08 15:06 13.08334 104.64267 35891 ft 486 kts 226°
2026-05-08 15:07 13.03723 104.59193 35890 ft 486 kts 226°
2026-05-08 15:07 12.99120 104.54130 35889 ft 485 kts 226°
2026-05-08 15:08 12.95295 104.49924 35887 ft 485 kts 226°
2026-05-08 15:08 12.89945 104.44045 35887 ft 485 kts 226°
2026-05-08 15:09 12.85343 104.38991 35879 ft 485 kts 226°
2026-05-08 15:09 12.80736 104.33935 35881 ft 485 kts 226°
2026-05-08 15:10 12.76126 104.28879 35879 ft 486 kts 226°
2026-05-08 15:10 12.71512 104.23820 35880 ft 486 kts 226°
2026-05-08 15:11 12.66894 104.18760 35879 ft 486 kts 226°
2026-05-08 15:11 12.62270 104.13696 35882 ft 487 kts 225°
2026-05-08 15:12 12.57640 104.08631 35882 ft 487 kts 225°
2026-05-08 15:12 12.53010 104.03566 35889 ft 487 kts 226°
2026-05-08 15:13 12.48377 103.98502 35892 ft 488 kts 226°
2026-05-08 15:13 12.43741 103.93437 35898 ft 487 kts 226°
2026-05-08 15:14 12.39106 103.88375 35901 ft 487 kts 226°
2026-05-08 15:14 12.34502 103.83350 35910 ft 487 kts 226°
2026-05-08 15:15 12.29873 103.78301 35915 ft 487 kts 226°
2026-05-08 15:15 12.25243 103.73254 35924 ft 486 kts 226°
2026-05-08 15:16 12.20655 103.68175 35932 ft 486 kts 228°
2026-05-08 15:16 12.16199 103.62977 35937 ft 486 kts 228°
2026-05-08 15:17 12.11736 103.57790 35941 ft 486 kts 228°
2026-05-08 15:17 12.07255 103.52615 35947 ft 487 kts 228°
2026-05-08 15:18 12.02762 103.47437 35950 ft 487 kts 228°
2026-05-08 15:18 11.98264 103.42256 35953 ft 488 kts 228°
2026-05-08 15:19 11.93761 103.37071 35951 ft 488 kts 228°
2026-05-08 15:19 11.89252 103.31882 35951 ft 488 kts 227°
2026-05-08 15:20 11.84739 103.26692 35947 ft 489 kts 227°
2026-05-08 15:20 11.80224 103.21500 35940 ft 489 kts 227°
2026-05-08 15:21 11.75701 103.16304 35938 ft 490 kts 227°
2026-05-08 15:21 11.71176 103.11108 35936 ft 490 kts 227°
2026-05-08 15:22 11.66650 103.05915 35928 ft 490 kts 227°
2026-05-08 15:22 11.62124 103.00721 35920 ft 490 kts 228°
2026-05-08 15:23 11.57962 102.95224 35918 ft 490 kts 232°
2026-05-08 15:23 11.53876 102.89668 35913 ft 489 kts 232°
2026-05-08 15:24 11.49785 102.84124 35913 ft 489 kts 232°
2026-05-08 15:24 11.45720 102.78620 35909 ft 489 kts 232°
2026-05-08 15:25 11.41601 102.73045 35908 ft 489 kts 232°
2026-05-08 15:25 11.37537 102.67548 35907 ft 489 kts 232°
2026-05-08 15:26 11.33445 102.62015 35905 ft 489 kts 232°
2026-05-08 15:26 11.29355 102.56488 35904 ft 489 kts 232°
2026-05-08 15:27 11.25261 102.50958 35905 ft 489 kts 232°
2026-05-08 15:27 11.21166 102.45431 35909 ft 489 kts 232°
2026-05-08 15:28 11.17070 102.39905 35908 ft 489 kts 232°
2026-05-08 15:28 11.12972 102.34379 35905 ft 489 kts 232°
2026-05-08 15:29 11.08869 102.28848 35904 ft 489 kts 232°
2026-05-08 15:29 11.04763 102.23319 35908 ft 490 kts 232°
2026-05-08 15:30 11.00635 102.17806 35908 ft 490 kts 232°
2026-05-08 15:30 10.96501 102.12297 35907 ft 490 kts 232°
2026-05-08 15:31 10.92369 102.06788 35911 ft 490 kts 232°
2026-05-08 15:31 10.88239 102.01282 35912 ft 489 kts 232°
2026-05-08 15:32 10.84108 101.95776 35912 ft 489 kts 232°
2026-05-08 15:32 10.79977 101.90276 35911 ft 489 kts 232°
2026-05-08 15:33 10.75850 101.84781 35913 ft 489 kts 232°
2026-05-08 15:33 10.71722 101.79287 35912 ft 489 kts 232°
2026-05-08 15:34 10.67597 101.73798 35912 ft 488 kts 231°
2026-05-08 15:34 10.63502 101.68352 35909 ft 488 kts 232°
2026-05-08 15:35 10.59376 101.62869 35908 ft 488 kts 232°
2026-05-08 15:35 10.55252 101.57390 35910 ft 488 kts 231°
2026-05-08 15:36 10.51797 101.52802 35909 ft 488 kts 231°
2026-05-08 15:36 10.47006 101.46443 35910 ft 488 kts 231°
2026-05-08 15:37 10.42883 101.40974 35909 ft 487 kts 231°
2026-05-08 15:37 10.38760 101.35507 35909 ft 487 kts 231°
2026-05-08 15:38 10.35332 101.30964 35908 ft 487 kts 231°
2026-05-08 15:38 10.31208 101.25503 35911 ft 487 kts 231°
2026-05-08 15:39 10.27083 101.20045 35908 ft 487 kts 231°
2026-05-08 15:39 10.22959 101.14590 35907 ft 487 kts 231°
2026-05-08 15:40 10.18783 101.09172 35905 ft 487 kts 230°
2026-05-08 15:40 10.14464 101.03875 35905 ft 487 kts 229°
2026-05-08 15:41 10.10148 100.98564 35905 ft 488 kts 229°
2026-05-08 15:41 10.05844 100.93236 35903 ft 488 kts 230°
2026-05-08 15:42 10.01540 100.87902 35905 ft 489 kts 230°
2026-05-08 15:42 9.97230 100.82566 35906 ft 489 kts 230°
2026-05-08 15:43 9.92915 100.77225 35904 ft 490 kts 230°
2026-05-08 15:43 9.88597 100.71883 35905 ft 490 kts 230°
2026-05-08 15:44 9.84272 100.66535 35907 ft 490 kts 230°
2026-05-08 15:44 9.79947 100.61189 35902 ft 490 kts 230°
2026-05-08 15:45 9.75649 100.55879 35902 ft 491 kts 230°
2026-05-08 15:45 9.71546 100.50355 35897 ft 491 kts 237°
2026-05-08 15:46 9.68466 100.44175 35898 ft 492 kts 248°
2026-05-08 15:46 9.66129 100.37652 35900 ft 493 kts 249°
2026-05-08 15:47 9.63768 100.31132 35903 ft 493 kts 249°
2026-05-08 15:47 9.61401 100.24617 35907 ft 493 kts 249°
2026-05-08 15:48 9.57849 100.14841 35914 ft 493 kts 249°
2026-05-08 15:49 9.55481 100.08326 35912 ft 493 kts 249°
2026-05-08 15:49 9.52810 100.01944 35911 ft 492 kts 245°
2026-05-08 15:50 9.49967 99.95633 35910 ft 492 kts 245°
2026-05-08 15:50 9.47133 99.89318 35903 ft 492 kts 245°
2026-05-08 15:51 9.44299 99.83006 35892 ft 493 kts 245°
2026-05-08 15:51 9.41045 99.76923 35885 ft 491 kts 235°
2026-05-08 15:52 9.36771 99.71539 35877 ft 490 kts 226°
2026-05-08 15:52 9.32205 99.66412 35872 ft 491 kts 227°
2026-05-08 15:53 9.27680 99.61290 35873 ft 491 kts 227°
2026-05-08 15:53 9.23092 99.56100 35876 ft 492 kts 227°
2026-05-08 15:54 9.18561 99.50980 35876 ft 492 kts 227°
2026-05-08 15:54 9.13994 99.45822 35879 ft 492 kts 227°
2026-05-08 15:55 9.09422 99.40661 35878 ft 492 kts 227°
2026-05-08 15:55 9.02557 99.32916 35874 ft 493 kts 227°
2026-05-08 15:56 8.97981 99.27756 35877 ft 493 kts 227°
2026-05-08 15:56 8.93399 99.22590 35875 ft 493 kts 227°
2026-05-08 15:57 8.88811 99.17421 35872 ft 494 kts 227°
2026-05-08 15:57 8.84227 99.12257 35874 ft 494 kts 227°
2026-05-08 15:58 8.79635 99.07088 35868 ft 494 kts 227°
2026-05-08 15:58 8.75035 99.01926 35870 ft 494 kts 227°
2026-05-08 15:59 8.70434 98.96765 35874 ft 494 kts 227°
2026-05-08 15:59 8.65829 98.91603 35877 ft 494 kts 227°
2026-05-08 16:00 8.61226 98.86443 35878 ft 494 kts 227°
2026-05-08 16:00 8.56621 98.81283 35874 ft 494 kts 227°
2026-05-08 16:01 8.52045 98.76157 35877 ft 494 kts 227°
2026-05-08 16:01 8.47438 98.70997 35878 ft 494 kts 227°
2026-05-08 16:02 8.42837 98.65848 35873 ft 494 kts 227°
2026-05-08 16:02 8.38233 98.60697 35871 ft 494 kts 227°
2026-05-08 16:03 8.33635 98.55554 35872 ft 493 kts 227°
2026-05-08 16:03 8.29038 98.50415 35879 ft 493 kts 227°
2026-05-08 16:04 8.24445 98.45281 35882 ft 492 kts 227°
2026-05-08 16:04 8.19853 98.40150 35885 ft 492 kts 227°
2026-05-08 16:05 8.15264 98.35025 35881 ft 492 kts 227°
2026-05-08 16:05 8.10901 98.29703 35879 ft 493 kts 235°
2026-05-08 16:06 8.07370 98.23766 35874 ft 494 kts 239°
2026-05-08 16:06 8.03913 98.17776 35874 ft 494 kts 239°
2026-05-08 16:07 8.00436 98.11782 35880 ft 495 kts 239°
2026-05-08 16:07 7.96979 98.05820 35891 ft 496 kts 239°
2026-05-08 16:08 7.93492 97.99809 35900 ft 497 kts 239°
2026-05-08 16:08 7.89997 97.93785 35910 ft 498 kts 239°
2026-05-08 16:09 7.87067 97.88736 35915 ft 498 kts 239°
2026-05-08 16:09 7.82999 97.81730 35919 ft 498 kts 239°
2026-05-08 16:10 7.79499 97.75701 35922 ft 498 kts 239°
2026-05-08 16:10 7.75985 97.69680 35916 ft 498 kts 238°
2026-05-08 16:11 7.72299 97.63769 35915 ft 498 kts 237°
2026-05-08 16:11 7.68594 97.57875 35913 ft 498 kts 237°
2026-05-08 16:12 7.64912 97.51968 35911 ft 498 kts 237°
2026-05-08 16:12 7.61361 97.45977 35910 ft 498 kts 239°
2026-05-08 16:13 7.57896 97.39937 35910 ft 498 kts 239°
2026-05-08 16:13 7.54404 97.33909 35911 ft 498 kts 239°
2026-05-08 16:14 7.50897 97.27885 35909 ft 498 kts 239°
2026-05-08 16:14 7.47388 97.21862 35909 ft 498 kts 239°
2026-05-08 16:15 7.43900 97.15879 35908 ft 499 kts 239°
2026-05-08 16:15 7.40388 97.09855 35908 ft 498 kts 239°
2026-05-08 16:16 7.36879 97.03838 35915 ft 498 kts 239°
2026-05-08 16:16 7.33367 96.97819 35911 ft 498 kts 239°
2026-05-08 16:17 7.30427 96.92781 35911 ft 498 kts 239°
2026-05-08 16:17 7.26353 96.85795 35913 ft 497 kts 239°
2026-05-08 16:18 7.22895 96.79764 35913 ft 497 kts 239°
2026-05-08 16:18 7.19442 96.73734 35911 ft 497 kts 239°
2026-05-08 16:19 7.15983 96.67709 35913 ft 497 kts 239°
2026-05-08 16:19 7.12523 96.61688 35909 ft 497 kts 239°
2026-05-08 16:20 7.09064 96.55673 35912 ft 496 kts 239°
2026-05-08 16:20 7.05607 96.49661 35909 ft 496 kts 239°
2026-05-08 16:21 7.02151 96.43654 35910 ft 496 kts 239°
2026-05-08 16:21 6.98697 96.37653 35911 ft 495 kts 239°
2026-05-08 16:22 6.95825 96.32667 35909 ft 495 kts 239°
2026-05-08 16:22 6.91788 96.25657 35904 ft 495 kts 239°
2026-05-08 16:23 6.88335 96.19665 35905 ft 495 kts 239°
2026-05-08 16:23 6.84880 96.13671 35904 ft 495 kts 239°
2026-05-08 16:24 6.81425 96.07679 35903 ft 495 kts 239°
2026-05-08 16:24 6.77974 96.01695 35903 ft 495 kts 239°
2026-05-08 16:25 6.74526 95.95704 35907 ft 495 kts 239°
2026-05-08 16:25 6.71183 95.89653 35906 ft 495 kts 240°
2026-05-08 16:26 6.67871 95.83637 35905 ft 495 kts 240°
2026-05-08 16:26 6.64525 95.77592 35906 ft 495 kts 240°
2026-05-08 16:27 6.61174 95.71550 35906 ft 495 kts 240°
2026-05-08 16:27 6.57814 95.65506 35905 ft 495 kts 239°
2026-05-08 16:28 6.54886 95.60561 35904 ft 495 kts 238°
2026-05-08 16:28 6.51319 95.54641 35903 ft 495 kts 238°
2026-05-08 16:29 6.47771 95.48703 35902 ft 495 kts 238°
2026-05-08 16:29 6.44234 95.42759 35905 ft 495 kts 238°
2026-05-08 16:30 6.40697 95.36816 35906 ft 495 kts 238°
2026-05-08 16:30 6.37157 95.30872 35906 ft 495 kts 238°
2026-05-08 16:31 6.33617 95.24929 35905 ft 495 kts 238°
2026-05-08 16:31 6.30079 95.18992 35905 ft 495 kts 238°
2026-05-08 16:32 6.26538 95.13051 35906 ft 495 kts 238°
2026-05-08 16:32 6.23000 95.07115 35905 ft 495 kts 238°
2026-05-08 16:33 6.19572 95.01112 35900 ft 495 kts 239°
2026-05-08 16:33 6.16176 94.95091 35903 ft 495 kts 239°
2026-05-08 16:34 6.12759 94.89074 35901 ft 496 kts 239°
2026-05-08 16:34 6.09335 94.83062 35898 ft 496 kts 239°
2026-05-08 16:35 6.05907 94.77044 35897 ft 496 kts 239°
2026-05-08 16:35 6.02476 94.71024 35900 ft 497 kts 239°
2026-05-08 16:36 5.98892 94.65097 35897 ft 496 kts 233°
2026-05-08 16:36 5.94818 94.59498 35899 ft 496 kts 233°
2026-05-08 16:37 5.90766 94.53885 35896 ft 497 kts 233°
2026-05-08 16:37 5.86714 94.48268 35900 ft 497 kts 233°
2026-05-08 16:38 5.82658 94.42650 35900 ft 497 kts 233°
2026-05-08 16:38 5.78631 94.37074 35906 ft 496 kts 233°
2026-05-08 16:39 5.74577 94.31463 35904 ft 496 kts 233°
2026-05-08 16:39 5.70523 94.25854 35904 ft 496 kts 233°
2026-05-08 16:40 5.66472 94.20251 35901 ft 496 kts 233°
2026-05-08 16:40 5.62426 94.14654 35903 ft 495 kts 233°
2026-05-08 16:41 5.58379 94.09059 35902 ft 495 kts 233°
2026-05-08 16:42 5.52310 94.00670 35898 ft 495 kts 233°
2026-05-08 16:42 5.48265 93.95081 35894 ft 495 kts 233°
2026-05-08 16:43 5.44222 93.89497 35895 ft 495 kts 233°
2026-05-08 16:43 5.40175 93.83909 35895 ft 495 kts 233°
2026-05-08 16:44 5.36125 93.78318 35892 ft 498 kts 233°
2026-05-08 16:44 5.31951 93.72757 35892 ft 499 kts 231°
2026-05-08 16:45 5.27735 93.67227 35894 ft 499 kts 231°
2026-05-08 16:45 5.23531 93.61684 35895 ft 499 kts 231°
2026-05-08 16:46 5.19357 93.56167 35894 ft 500 kts 231°
2026-05-08 16:46 5.15152 93.50611 35894 ft 500 kts 231°
2026-05-08 16:47 5.10944 93.45052 35896 ft 501 kts 231°
2026-05-08 16:47 5.06731 93.39487 35890 ft 501 kts 231°
2026-05-08 16:48 5.02513 93.33918 35893 ft 501 kts 231°
2026-05-08 16:48 4.98292 93.28346 35896 ft 502 kts 231°
2026-05-08 16:49 4.94072 93.22777 35896 ft 502 kts 231°
2026-05-08 16:49 4.89851 93.17208 35897 ft 502 kts 231°
2026-05-08 16:50 4.85628 93.11637 35895 ft 502 kts 231°
2026-05-08 16:50 4.81406 93.06070 35894 ft 502 kts 231°
2026-05-08 16:51 4.77184 93.00504 35895 ft 501 kts 231°
2026-05-08 16:51 4.72960 92.94935 35891 ft 501 kts 231°
2026-05-08 16:52 4.68738 92.89372 35892 ft 502 kts 231°
2026-05-08 16:52 4.64514 92.83806 35889 ft 502 kts 231°
2026-05-08 16:53 4.58201 92.75491 35892 ft 502 kts 231°
2026-05-08 16:53 4.53974 92.69925 35892 ft 502 kts 232°
2026-05-08 16:54 4.49745 92.64357 35891 ft 502 kts 232°
2026-05-08 16:54 4.45515 92.58788 35894 ft 502 kts 232°
2026-05-08 16:55 4.41280 92.53216 35892 ft 503 kts 232°
2026-05-08 16:55 4.37046 92.47645 35895 ft 502 kts 232°
2026-05-08 16:56 4.32812 92.42076 35901 ft 502 kts 232°
2026-05-08 16:56 4.28581 92.36511 35897 ft 502 kts 232°
2026-05-08 16:57 4.24353 92.30951 35900 ft 501 kts 232°
2026-05-08 16:57 4.20126 92.25394 35898 ft 501 kts 232°
2026-05-08 16:58 4.15903 92.19844 35900 ft 501 kts 232°
2026-05-08 16:58 4.11679 92.14293 35900 ft 501 kts 232°
2026-05-08 16:59 4.07459 92.08748 35900 ft 500 kts 232°
2026-05-08 16:59 4.03239 92.03204 35894 ft 500 kts 232°
2026-05-08 17:00 3.99015 91.97664 35894 ft 500 kts 232°
2026-05-08 17:00 3.94766 91.92148 35896 ft 501 kts 231°
2026-05-08 17:01 3.90508 91.86624 35894 ft 501 kts 231°
2026-05-08 17:01 3.86255 91.81101 35895 ft 501 kts 231°
2026-05-08 17:02 3.82000 91.75573 35896 ft 501 kts 231°
2026-05-08 17:02 3.77808 91.70121 35895 ft 492 kts 230°
2026-05-08 17:03 3.73621 91.64690 35898 ft 495 kts 230°
2026-05-08 17:03 3.69417 91.59234 35897 ft 494 kts 230°
2026-05-08 17:04 3.65216 91.53781 35898 ft 495 kts 230°
2026-05-08 17:04 3.61011 91.48325 35898 ft 495 kts 230°
2026-05-08 17:05 3.56806 91.42868 35895 ft 495 kts 230°
2026-05-08 17:05 3.52599 91.37410 35898 ft 495 kts 231°
2026-05-08 17:06 3.48390 91.31947 35896 ft 496 kts 231°
2026-05-08 17:06 3.44177 91.26479 35883 ft 496 kts 231°
2026-05-08 17:07 3.39958 91.21006 35875 ft 497 kts 231°
2026-05-08 17:07 3.35737 91.15531 35896 ft 497 kts 231°
2026-05-08 17:08 3.31512 91.10051 35900 ft 497 kts 231°
2026-05-08 17:08 3.27284 91.04569 35901 ft 498 kts 231°
2026-05-08 17:09 3.23053 90.99083 35895 ft 498 kts 231°
2026-05-08 17:09 3.18848 90.93632 35877 ft 498 kts 231°
2026-05-08 17:10 3.14613 90.88143 35881 ft 499 kts 231°
2026-05-08 17:10 3.10374 90.82649 35897 ft 499 kts 231°
2026-05-08 17:11 3.06130 90.77153 35903 ft 499 kts 231°
2026-05-08 17:11 3.01887 90.71660 35897 ft 499 kts 231°
2026-05-08 17:12 2.97642 90.66164 35895 ft 499 kts 231°
2026-05-08 17:12 2.93398 90.60671 35895 ft 499 kts 231°
2026-05-08 17:13 2.89158 90.55182 35898 ft 499 kts 231°
2026-05-08 17:13 2.84916 90.49692 35898 ft 498 kts 231°
2026-05-08 17:14 2.80674 90.44204 35895 ft 498 kts 231°
2026-05-08 17:14 2.76437 90.38722 35894 ft 498 kts 231°
2026-05-08 17:15 2.72198 90.33238 35891 ft 498 kts 231°
2026-05-08 17:15 2.67963 90.27760 35893 ft 498 kts 231°
2026-05-08 17:16 2.63729 90.22284 35892 ft 497 kts 231°
2026-05-08 17:16 2.60211 90.17735 35893 ft 497 kts 231°
2026-05-08 17:17 2.55982 90.12267 35889 ft 497 kts 231°
2026-05-08 17:17 2.51755 90.06801 35893 ft 497 kts 231°
2026-05-08 17:18 2.47527 90.01336 35892 ft 496 kts 231°
2026-05-08 17:18 2.43287 89.95861 35890 ft 500 kts 231°
2026-05-08 17:19 2.39026 89.90351 35888 ft 500 kts 231°
2026-05-08 17:19 2.34770 89.84849 35889 ft 500 kts 231°
2026-05-08 17:20 2.30511 89.79346 35887 ft 500 kts 231°
2026-05-08 17:20 2.26261 89.73833 35891 ft 500 kts 232°
2026-05-08 17:21 2.22045 89.68299 35891 ft 500 kts 232°
2026-05-08 17:21 2.17823 89.62765 35891 ft 500 kts 232°
2026-05-08 17:22 2.13598 89.57233 35888 ft 500 kts 232°
2026-05-08 17:22 2.09401 89.51739 35890 ft 500 kts 232°
2026-05-08 17:23 2.05177 89.46212 35892 ft 500 kts 232°
2026-05-08 17:23 2.00952 89.40683 35891 ft 500 kts 232°
2026-05-08 17:24 1.96729 89.35158 35892 ft 500 kts 232°
2026-05-08 17:24 1.92508 89.29635 35890 ft 500 kts 232°
2026-05-08 17:25 1.88287 89.24115 35890 ft 500 kts 232°
2026-05-08 17:25 1.84067 89.18595 35890 ft 499 kts 232°
2026-05-08 17:26 1.79851 89.13080 35890 ft 499 kts 232°
2026-05-08 17:26 1.75631 89.07561 35890 ft 499 kts 232°
2026-05-08 17:27 1.71414 89.02047 35890 ft 499 kts 232°
2026-05-08 17:27 1.67199 88.96535 35888 ft 499 kts 232°
2026-05-08 17:28 1.62981 88.91021 35888 ft 499 kts 232°
2026-05-08 17:28 1.58765 88.85510 35890 ft 499 kts 232°
2026-05-08 17:29 1.54547 88.79995 35888 ft 499 kts 232°
2026-05-08 17:29 1.50331 88.74484 35890 ft 499 kts 232°
2026-05-08 17:30 1.46113 88.68971 35890 ft 499 kts 232°
2026-05-08 17:30 1.41898 88.63458 35893 ft 499 kts 232°
2026-05-08 17:31 1.37687 88.57944 35892 ft 499 kts 232°
2026-05-08 17:31 1.33477 88.52431 35892 ft 499 kts 232°
2026-05-08 17:32 1.29266 88.46920 35891 ft 499 kts 232°
2026-05-08 17:32 1.25083 88.41444 35892 ft 499 kts 232°
2026-05-08 17:33 1.20873 88.35935 35892 ft 499 kts 232°
2026-05-08 17:33 1.16660 88.30421 35889 ft 499 kts 232°
2026-05-08 17:34 1.12451 88.24913 35893 ft 499 kts 232°
2026-05-08 17:34 1.08242 88.19405 35896 ft 498 kts 232°
2026-05-08 17:35 1.04035 88.13900 35895 ft 498 kts 232°
2026-05-08 17:35 0.99832 88.08401 35896 ft 498 kts 232°
2026-05-08 17:36 0.95630 88.02903 35895 ft 497 kts 232°
2026-05-08 17:36 0.91433 87.97411 35895 ft 497 kts 232°
2026-05-08 17:37 0.87237 87.91922 35891 ft 497 kts 232°
2026-05-08 17:37 0.83042 87.86434 35894 ft 497 kts 232°
2026-05-08 17:38 0.78848 87.80947 35895 ft 496 kts 232°
2026-05-08 17:38 0.74685 87.75502 35896 ft 496 kts 232°
2026-05-08 17:39 0.70496 87.70022 35891 ft 496 kts 232°
2026-05-08 17:39 0.66307 87.64542 35893 ft 496 kts 232°
2026-05-08 17:40 0.62117 87.59063 35891 ft 496 kts 232°
2026-05-08 17:40 0.57929 87.53585 35893 ft 496 kts 232°
2026-05-08 17:41 0.53740 87.48106 35889 ft 496 kts 232°
2026-05-08 17:41 0.49551 87.42627 35896 ft 496 kts 232°
2026-05-08 17:42 0.45361 87.37147 35894 ft 496 kts 232°
2026-05-08 17:42 0.41171 87.31666 35891 ft 496 kts 232°
2026-05-08 17:43 0.36983 87.26187 35891 ft 496 kts 232°
2026-05-08 17:43 0.32791 87.20703 35889 ft 496 kts 232°
2026-05-08 17:44 0.28602 87.15223 35893 ft 496 kts 232°
2026-05-08 17:44 0.24413 87.09744 35888 ft 496 kts 232°
2026-05-08 17:45 0.20222 87.04261 35889 ft 496 kts 232°
2026-05-08 17:45 0.16030 86.98777 35889 ft 496 kts 232°
2026-05-08 17:46 0.11838 86.93294 35890 ft 496 kts 232°
2026-05-08 17:46 0.07648 86.87813 35893 ft 497 kts 232°
2026-05-08 17:47 0.03481 86.82363 35892 ft 497 kts 232°
2026-05-08 17:47 -0.00031 86.77769 35887 ft 497 kts 232°
2026-05-08 17:48 -0.04908 86.71389 35890 ft 497 kts 232°
2026-05-08 17:48 -0.09104 86.65900 35890 ft 497 kts 232°
2026-05-08 17:49 -0.13301 86.60410 35886 ft 497 kts 232°
2026-05-08 17:49 -0.17500 86.54917 35891 ft 497 kts 232°
2026-05-08 17:50 -0.21698 86.49426 35887 ft 497 kts 232°
2026-05-08 17:50 -0.25900 86.43929 35886 ft 498 kts 232°
2026-05-08 17:51 -0.30103 86.38432 35886 ft 498 kts 232°
2026-05-08 17:51 -0.34307 86.32933 35887 ft 498 kts 232°
2026-05-08 17:52 -0.38511 86.27434 35888 ft 498 kts 232°
2026-05-08 17:53 -0.44824 86.19175 35887 ft 499 kts 232°
2026-05-08 17:53 -0.49036 86.13666 35890 ft 499 kts 232°
2026-05-08 17:54 -0.53249 86.08155 35889 ft 499 kts 232°
2026-05-08 17:54 -0.57434 86.02680 35887 ft 499 kts 232°
2026-05-08 17:55 -0.61677 85.97129 35887 ft 499 kts 232°
2026-05-08 17:55 -0.65866 85.91650 35886 ft 500 kts 232°
2026-05-08 17:56 -0.70084 85.86131 35888 ft 500 kts 232°
2026-05-08 17:56 -0.74304 85.80610 35884 ft 500 kts 232°
2026-05-08 17:57 -0.78525 85.75087 35882 ft 500 kts 232°
2026-05-08 17:57 -0.82749 85.69561 35888 ft 500 kts 232°
2026-05-08 17:58 -0.86973 85.64033 35887 ft 501 kts 232°
2026-05-08 17:58 -0.91198 85.58505 35888 ft 500 kts 232°
2026-05-08 17:59 -0.95424 85.52975 35887 ft 500 kts 232°
2026-05-08 17:59 -0.99647 85.47448 35888 ft 500 kts 232°
2026-05-08 18:00 -1.03872 85.41919 35883 ft 500 kts 232°
2026-05-08 18:00 -1.10207 85.33628 35884 ft 500 kts 232°
2026-05-08 18:01 -1.14430 85.28101 35887 ft 500 kts 232°
2026-05-08 18:01 -1.18652 85.22575 35886 ft 500 kts 232°
2026-05-08 18:02 -1.22159 85.17984 35886 ft 500 kts 232°
2026-05-08 18:02 -1.27088 85.11532 35887 ft 500 kts 232°
2026-05-08 18:03 -1.31303 85.06014 35885 ft 500 kts 232°
2026-05-08 18:03 -1.35521 85.00492 35886 ft 499 kts 232°
2026-05-08 18:04 -1.39732 84.94978 35886 ft 499 kts 232°
2026-05-08 18:04 -1.43230 84.90398 35887 ft 499 kts 232°
2026-05-08 18:05 -1.47437 84.84889 35886 ft 498 kts 232°
2026-05-08 18:05 -1.52320 84.78493 35887 ft 498 kts 232°
2026-05-08 18:06 -1.56514 84.72999 35886 ft 497 kts 232°
2026-05-08 18:06 -1.60025 84.68400 35885 ft 496 kts 232°
2026-05-08 18:07 -1.64184 84.62950 35878 ft 496 kts 232°
2026-05-08 18:07 -1.68371 84.57466 35877 ft 496 kts 232°
2026-05-08 18:08 -1.72553 84.51985 35878 ft 496 kts 232°
2026-05-08 18:08 -1.76735 84.46506 35877 ft 496 kts 232°
2026-05-08 18:09 -1.80915 84.41028 35877 ft 495 kts 232°
2026-05-08 18:09 -1.85094 84.35551 35876 ft 495 kts 232°
2026-05-08 18:10 -1.89273 84.30073 35879 ft 496 kts 232°
2026-05-08 18:10 -1.93454 84.24593 35879 ft 495 kts 232°
2026-05-08 18:11 -1.97635 84.19112 35875 ft 497 kts 232°
2026-05-08 18:11 -2.01823 84.13621 35876 ft 496 kts 232°
2026-05-08 18:12 -2.06004 84.08142 35875 ft 496 kts 232°
2026-05-08 18:12 -2.10196 84.02645 35875 ft 497 kts 232°
2026-05-08 18:13 -2.14385 83.97153 35875 ft 496 kts 232°
2026-05-08 18:13 -2.18570 83.91667 35876 ft 496 kts 232°
2026-05-08 18:14 -2.22751 83.86186 35874 ft 496 kts 232°
2026-05-08 18:14 -2.26931 83.80705 35874 ft 496 kts 232°
2026-05-08 18:15 -2.31114 83.75219 35872 ft 496 kts 232°
2026-05-08 18:15 -2.35288 83.69744 35874 ft 496 kts 232°
2026-05-08 18:16 -2.39473 83.64254 35872 ft 497 kts 232°
2026-05-08 18:16 -2.43629 83.58801 35870 ft 496 kts 232°
2026-05-08 18:17 -2.47802 83.53326 35872 ft 495 kts 232°
2026-05-08 18:17 -2.51976 83.47850 35868 ft 495 kts 232°
2026-05-08 18:18 -2.56157 83.42362 35867 ft 495 kts 232°
2026-05-08 18:18 -2.60329 83.36886 35867 ft 495 kts 232°
2026-05-08 18:19 -2.64502 83.31407 35867 ft 495 kts 232°
2026-05-08 18:19 -2.68671 83.25935 35865 ft 495 kts 232°
2026-05-08 18:20 -2.72846 83.20452 35864 ft 496 kts 232°
2026-05-08 18:20 -2.77019 83.14973 35865 ft 495 kts 232°
2026-05-08 18:21 -2.81193 83.09496 35866 ft 495 kts 232°
2026-05-08 18:21 -2.85367 83.04016 35865 ft 495 kts 232°
2026-05-08 18:22 -2.89540 82.98534 35862 ft 496 kts 233°
2026-05-08 18:22 -2.93708 82.93059 35862 ft 495 kts 233°
2026-05-08 18:23 -2.97887 82.87566 35862 ft 497 kts 233°
2026-05-08 18:23 -3.02064 82.82076 35860 ft 495 kts 233°
2026-05-08 18:24 -3.06237 82.76590 35859 ft 495 kts 233°
2026-05-08 18:24 -3.10409 82.71107 35859 ft 495 kts 233°
2026-05-08 18:25 -3.14574 82.65630 35858 ft 494 kts 233°
2026-05-08 18:25 -3.18743 82.60147 35853 ft 496 kts 233°
2026-05-08 18:26 -3.22895 82.54685 35855 ft 496 kts 233°
2026-05-08 18:26 -3.27070 82.49191 35851 ft 496 kts 233°
2026-05-08 18:27 -3.30566 82.44592 35857 ft 495 kts 233°
2026-05-08 18:27 -3.35420 82.38204 35842 ft 497 kts 233°
2026-05-08 18:28 -3.39602 82.32698 35839 ft 497 kts 233°
2026-05-08 18:28 -3.43780 82.27199 35853 ft 496 kts 233°
2026-05-08 18:29 -3.47953 82.21704 35859 ft 496 kts 233°
2026-05-08 18:29 -3.52136 82.16195 35857 ft 497 kts 233°
2026-05-08 18:30 -3.56321 82.10684 35839 ft 497 kts 233°
2026-05-08 18:30 -3.60488 82.05194 35838 ft 497 kts 233°
2026-05-08 18:31 -3.64671 81.99683 35839 ft 497 kts 233°
2026-05-08 18:31 -3.68851 81.94175 35843 ft 497 kts 233°
2026-05-08 18:32 -3.73026 81.88672 35935 ft 496 kts 233°
2026-05-08 18:32 -3.75111 81.85923 36111 ft 496 kts 233°
2026-05-08 18:32 -3.77194 81.83178 36293 ft 495 kts 233°
2026-05-08 18:33 -3.79275 81.80435 36468 ft 494 kts 233°
2026-05-08 18:33 -3.81351 81.77699 36656 ft 493 kts 233°
2026-05-08 18:33 -3.83424 81.74966 36827 ft 492 kts 233°
2026-05-08 18:33 -3.85496 81.72234 36996 ft 492 kts 233°
2026-05-08 18:34 -3.87562 81.69509 37166 ft 491 kts 233°
2026-05-08 18:34 -3.89628 81.66783 37322 ft 491 kts 233°
2026-05-08 18:34 -3.91691 81.64063 37478 ft 491 kts 233°
2026-05-08 18:34 -3.93753 81.61342 37639 ft 490 kts 233°
2026-05-08 18:35 -3.95813 81.58625 37792 ft 490 kts 233°
2026-05-08 18:35 -3.97846 81.55943 37844 ft 490 kts 233°
2026-05-08 18:35 -4.01955 81.50521 37846 ft 489 kts 233°
2026-05-08 18:36 -4.06074 81.45084 37846 ft 490 kts 233°
2026-05-08 18:36 -4.10200 81.39638 37847 ft 491 kts 233°
2026-05-08 18:37 -4.14335 81.34180 37845 ft 492 kts 233°
2026-05-08 18:37 -4.18481 81.28705 37844 ft 494 kts 233°
2026-05-08 18:38 -4.22631 81.23223 37847 ft 495 kts 233°
2026-05-08 18:38 -4.26792 81.17726 37851 ft 495 kts 233°
2026-05-08 18:39 -4.30955 81.12225 37852 ft 496 kts 233°
2026-05-08 18:39 -4.35121 81.06720 37854 ft 496 kts 233°
2026-05-08 18:40 -4.39289 81.01210 37853 ft 496 kts 233°
2026-05-08 18:40 -4.43454 80.95702 37852 ft 496 kts 233°
2026-05-08 18:41 -4.47618 80.90196 37857 ft 496 kts 233°
2026-05-08 18:41 -4.51780 80.84690 37856 ft 495 kts 233°
2026-05-08 18:42 -4.55939 80.79187 37853 ft 495 kts 233°
2026-05-08 18:42 -4.60096 80.73686 37851 ft 495 kts 233°
2026-05-08 18:43 -4.64253 80.68184 37852 ft 495 kts 233°
2026-05-08 18:43 -4.68406 80.62687 37846 ft 495 kts 233°
2026-05-08 18:44 -4.72532 80.57223 37843 ft 495 kts 233°
2026-05-08 18:44 -4.76684 80.51724 37842 ft 495 kts 233°
2026-05-08 18:45 -4.80836 80.46223 37843 ft 495 kts 233°
2026-05-08 18:45 -4.84990 80.40719 37841 ft 495 kts 233°
2026-05-08 18:46 -4.89141 80.35217 37844 ft 495 kts 233°
2026-05-08 18:46 -4.93295 80.29710 37844 ft 495 kts 234°
2026-05-08 18:47 -4.97450 80.24201 37847 ft 495 kts 234°
2026-05-08 18:47 -5.01604 80.18691 37840 ft 495 kts 234°
2026-05-08 18:48 -5.05759 80.13179 37844 ft 495 kts 234°
2026-05-08 18:48 -5.09913 80.07667 37842 ft 495 kts 234°
2026-05-08 18:49 -5.14069 80.02151 37843 ft 495 kts 234°
2026-05-08 18:49 -5.18220 79.96639 37845 ft 495 kts 234°
2026-05-08 18:50 -5.22374 79.91124 37842 ft 495 kts 234°
2026-05-08 18:50 -5.25824 79.86541 37843 ft 495 kts 234°
2026-05-08 18:51 -5.30675 79.80096 37845 ft 495 kts 234°
2026-05-08 18:51 -5.34824 79.74583 37843 ft 495 kts 234°
2026-05-08 18:52 -5.38943 79.69108 37842 ft 495 kts 234°
2026-05-08 18:52 -5.43091 79.63592 37843 ft 495 kts 234°
2026-05-08 18:53 -5.47235 79.58081 37842 ft 495 kts 234°
2026-05-08 18:53 -5.51382 79.52564 37842 ft 495 kts 234°
2026-05-08 18:54 -5.55525 79.47051 37842 ft 495 kts 234°
2026-05-08 18:54 -5.58969 79.42466 37838 ft 495 kts 234°
2026-05-08 18:55 -5.65217 79.34148 37819 ft 495 kts 234°
2026-05-08 18:56 -5.69361 79.28630 37836 ft 495 kts 233°
2026-05-08 18:56 -5.73484 79.23138 37840 ft 495 kts 233°
2026-05-08 18:57 -5.77633 79.17609 37844 ft 496 kts 233°
2026-05-08 18:57 -5.81786 79.12076 37831 ft 496 kts 233°
2026-05-08 18:58 -5.85943 79.06535 37821 ft 497 kts 233°
2026-05-08 18:58 -5.90101 79.00991 37820 ft 497 kts 233°
2026-05-08 18:59 -5.94258 78.95443 37834 ft 497 kts 233°
2026-05-08 18:59 -5.98412 78.89896 37840 ft 497 kts 233°
2026-05-08 19:00 -6.02563 78.84356 37842 ft 496 kts 233°
2026-05-08 19:00 -6.06716 78.78811 37841 ft 496 kts 233°
2026-05-08 19:01 -6.10863 78.73274 37828 ft 496 kts 233°
2026-05-08 19:01 -6.15007 78.67738 37824 ft 496 kts 233°
2026-05-08 19:02 -6.19151 78.62200 37846 ft 495 kts 233°
2026-05-08 19:02 -6.23291 78.56666 37848 ft 495 kts 233°
2026-05-08 19:03 -6.27429 78.51133 37843 ft 495 kts 234°
2026-05-08 19:03 -6.31567 78.45598 37844 ft 495 kts 234°
2026-05-08 19:04 -6.35702 78.40065 37845 ft 495 kts 234°
2026-05-08 19:04 -6.39834 78.34535 37849 ft 494 kts 234°
2026-05-08 19:05 -6.43962 78.29009 37846 ft 494 kts 234°
2026-05-08 19:05 -6.48088 78.23482 37825 ft 494 kts 234°
2026-05-08 19:06 -6.52217 78.17952 37822 ft 494 kts 234°
2026-05-08 19:06 -6.56341 78.12425 37823 ft 494 kts 234°
2026-05-08 19:07 -6.60468 78.06894 37830 ft 494 kts 234°
2026-05-08 19:07 -6.64595 78.01359 37849 ft 494 kts 234°
2026-05-08 19:08 -6.68724 77.95822 37853 ft 494 kts 234°
2026-05-08 19:08 -6.72821 77.90324 37844 ft 495 kts 234°
2026-05-08 19:09 -6.76948 77.84785 37830 ft 495 kts 234°
2026-05-08 19:09 -6.81072 77.79248 37828 ft 495 kts 234°
2026-05-08 19:10 -6.85195 77.73712 37824 ft 494 kts 234°
2026-05-08 19:10 -6.89312 77.68180 37832 ft 494 kts 234°
2026-05-08 19:11 -6.93428 77.62649 37849 ft 493 kts 234°
2026-05-08 19:11 -6.97541 77.57119 37854 ft 493 kts 234°
2026-05-08 19:12 -7.01653 77.51589 37848 ft 493 kts 234°
2026-05-08 19:12 -7.05764 77.46060 37832 ft 493 kts 234°
2026-05-08 19:13 -7.09872 77.40531 37825 ft 493 kts 234°
2026-05-08 19:13 -7.13975 77.35008 37829 ft 493 kts 234°
2026-05-08 19:14 -7.18080 77.29481 37831 ft 492 kts 234°
2026-05-08 19:14 -7.22179 77.23959 37846 ft 492 kts 234°
2026-05-08 19:15 -7.26277 77.18437 37852 ft 492 kts 234°
2026-05-08 19:15 -7.30369 77.12921 37844 ft 492 kts 234°
2026-05-08 19:16 -7.34463 77.07401 37824 ft 492 kts 234°
2026-05-08 19:16 -7.38525 77.01921 37821 ft 492 kts 234°
2026-05-08 19:17 -7.42643 76.96365 37829 ft 491 kts 234°
2026-05-08 19:17 -7.46700 76.90889 37853 ft 491 kts 234°
2026-05-08 19:18 -7.50784 76.85374 37851 ft 491 kts 234°
2026-05-08 19:18 -7.54863 76.79863 37853 ft 490 kts 234°
2026-05-08 19:19 -7.58940 76.74354 37851 ft 490 kts 234°
2026-05-08 19:19 -7.63019 76.68841 37833 ft 490 kts 234°
2026-05-08 19:20 -7.67090 76.63335 37828 ft 490 kts 234°
2026-05-08 19:20 -7.71164 76.57825 37832 ft 490 kts 234°
2026-05-08 19:21 -7.75236 76.52314 37853 ft 490 kts 234°
2026-05-08 19:21 -7.79303 76.46808 37856 ft 489 kts 234°
2026-05-08 19:22 -7.83367 76.41305 37852 ft 489 kts 234°
2026-05-08 19:22 -7.87435 76.35793 37853 ft 489 kts 234°
2026-05-08 19:23 -7.91495 76.30291 37831 ft 489 kts 234°
2026-05-08 19:23 -7.95527 76.24824 37834 ft 489 kts 234°
2026-05-08 19:24 -7.99582 76.19325 37858 ft 488 kts 234°
2026-05-08 19:24 -8.03637 76.13824 37864 ft 488 kts 234°
2026-05-08 19:25 -8.07689 76.08324 37859 ft 488 kts 234°
2026-05-08 19:25 -8.11740 76.02823 37853 ft 488 kts 234°
2026-05-08 19:26 -8.15787 75.97326 37851 ft 488 kts 234°
2026-05-08 19:26 -8.19832 75.91829 37855 ft 488 kts 234°
2026-05-08 19:27 -8.23873 75.86336 37855 ft 487 kts 234°
2026-05-08 19:27 -8.27913 75.80842 37853 ft 487 kts 234°
2026-05-08 19:28 -8.31951 75.75348 37856 ft 487 kts 234°
2026-05-08 19:28 -8.35985 75.69858 37852 ft 487 kts 234°
2026-05-08 19:29 -8.40018 75.64368 37853 ft 486 kts 234°
2026-05-08 19:29 -8.44047 75.58881 37854 ft 486 kts 234°
2026-05-08 19:30 -8.48073 75.53395 37858 ft 486 kts 234°
2026-05-08 19:30 -8.52097 75.47909 37844 ft 486 kts 234°
2026-05-08 19:31 -8.56119 75.42426 37846 ft 486 kts 234°
2026-05-08 19:31 -8.60138 75.36941 37866 ft 486 kts 234°
2026-05-08 19:32 -8.64156 75.31457 37871 ft 485 kts 234°
2026-05-08 19:32 -8.68175 75.25970 37858 ft 485 kts 234°
2026-05-08 19:33 -8.72190 75.20487 37844 ft 486 kts 234°
2026-05-08 19:33 -8.76206 75.14999 37843 ft 486 kts 234°
2026-05-08 19:34 -8.80192 75.09550 37859 ft 485 kts 234°
2026-05-08 19:34 -8.84209 75.04060 37855 ft 486 kts 234°
2026-05-08 19:35 -8.87841 74.98331 37862 ft 484 kts 243°
2026-05-08 19:35 -8.90634 74.92148 37858 ft 484 kts 247°
2026-05-08 19:36 -8.93375 74.85931 37858 ft 484 kts 246°
2026-05-08 19:36 -8.96123 74.79714 37866 ft 484 kts 246°
2026-05-08 19:37 -8.98865 74.73502 37862 ft 483 kts 246°
2026-05-08 19:37 -9.01604 74.67288 37859 ft 484 kts 246°
2026-05-08 19:38 -9.04339 74.61074 37864 ft 483 kts 246°
2026-05-08 19:38 -9.07089 74.54829 37866 ft 488 kts 246°
2026-05-08 19:39 -9.09863 74.48525 37864 ft 492 kts 246°
2026-05-08 19:39 -9.12648 74.42191 37861 ft 494 kts 247°
2026-05-08 19:40 -9.15442 74.35833 37863 ft 495 kts 247°
2026-05-08 19:40 -9.18239 74.29467 37863 ft 495 kts 247°
2026-05-08 19:41 -9.21039 74.23090 37869 ft 496 kts 247°
2026-05-08 19:41 -9.23365 74.17790 37869 ft 496 kts 247°
2026-05-08 19:42 -9.26168 74.11397 37834 ft 497 kts 247°
2026-05-08 19:42 -9.28976 74.04992 37834 ft 498 kts 248°
2026-05-08 19:43 -9.31784 73.98575 37832 ft 499 kts 248°
2026-05-08 19:43 -9.34599 73.92146 37835 ft 500 kts 248°
2026-05-08 19:44 -9.37416 73.85707 37836 ft 500 kts 248°
2026-05-08 19:44 -9.40235 73.79264 37845 ft 500 kts 248°
2026-05-08 19:45 -9.43053 73.72818 37844 ft 500 kts 248°
2026-05-08 19:45 -9.45870 73.66369 37847 ft 500 kts 248°
2026-05-08 19:46 -9.48664 73.59968 37848 ft 500 kts 248°
2026-05-08 19:46 -9.52880 73.50301 37845 ft 500 kts 248°
2026-05-08 19:47 -9.55691 73.43856 37846 ft 500 kts 248°
2026-05-08 19:47 -9.58499 73.37410 37850 ft 500 kts 248°
2026-05-08 19:48 -9.61305 73.30964 37846 ft 500 kts 248°
2026-05-08 19:48 -9.64113 73.24511 37847 ft 500 kts 248°
2026-05-08 19:49 -9.66920 73.18054 37845 ft 501 kts 248°
2026-05-08 19:49 -9.69726 73.11599 37849 ft 501 kts 248°
2026-05-08 19:50 -9.72887 73.05304 37850 ft 503 kts 239°
2026-05-08 19:50 -9.77035 72.99580 37849 ft 504 kts 234°
2026-05-08 19:51 -9.81318 72.93945 37853 ft 504 kts 234°
2026-05-08 19:51 -9.85588 72.88302 37855 ft 505 kts 234°
2026-05-08 19:52 -9.89862 72.82654 37853 ft 505 kts 234°
2026-05-08 19:52 -9.94138 72.77005 37854 ft 505 kts 234°
2026-05-08 19:53 -9.98413 72.71351 37854 ft 505 kts 234°
2026-05-08 19:53 -10.02687 72.65698 37852 ft 505 kts 234°
2026-05-08 19:54 -10.06960 72.60040 37857 ft 505 kts 234°
2026-05-08 19:54 -10.11236 72.54379 37858 ft 505 kts 234°
2026-05-08 19:55 -10.15512 72.48716 37861 ft 505 kts 234°
2026-05-08 19:55 -10.19789 72.43046 37858 ft 506 kts 234°
2026-05-08 19:56 -10.24057 72.37387 37893 ft 505 kts 234°
2026-05-08 19:56 -10.28328 72.31719 37881 ft 505 kts 234°
2026-05-08 19:57 -10.32595 72.26055 37880 ft 505 kts 234°
2026-05-08 19:57 -10.36864 72.20385 37880 ft 505 kts 234°
2026-05-08 19:58 -10.41108 72.14743 37866 ft 506 kts 234°
2026-05-08 19:58 -10.45378 72.09067 37864 ft 506 kts 234°
2026-05-08 19:59 -10.49649 72.03388 37869 ft 506 kts 234°
2026-05-08 19:59 -10.53916 71.97709 37869 ft 506 kts 234°
2026-05-08 20:00 -10.58186 71.92025 37868 ft 506 kts 234°
2026-05-08 20:00 -10.62456 71.86336 37871 ft 506 kts 234°
2026-05-08 20:01 -10.66717 71.80654 37906 ft 505 kts 234°
2026-05-08 20:01 -10.70975 71.74976 37916 ft 505 kts 234°
2026-05-08 20:02 -10.75227 71.69299 37912 ft 505 kts 234°
2026-05-08 20:02 -10.79480 71.63623 37893 ft 504 kts 234°
2026-05-08 20:03 -10.83730 71.57946 37892 ft 504 kts 234°
2026-05-08 20:03 -10.87975 71.52273 37915 ft 504 kts 234°
2026-05-08 20:04 -10.92213 71.46606 37918 ft 503 kts 234°
2026-05-08 20:04 -10.96450 71.40939 37917 ft 502 kts 234°
2026-05-08 20:05 -11.00679 71.35282 37902 ft 502 kts 234°
2026-05-08 20:05 -11.04901 71.29621 37897 ft 502 kts 234°
2026-05-08 20:06 -11.09117 71.23969 37896 ft 501 kts 234°
2026-05-08 20:06 -11.13329 71.18322 37900 ft 501 kts 234°
2026-05-08 20:07 -11.17539 71.12671 37922 ft 500 kts 234°
2026-05-08 20:07 -11.21749 71.07025 37926 ft 500 kts 234°
2026-05-08 20:08 -11.25962 71.01370 37882 ft 501 kts 234°
2026-05-08 20:08 -11.30174 70.95711 37884 ft 501 kts 234°
2026-05-08 20:09 -11.34383 70.90051 37885 ft 501 kts 234°
2026-05-08 20:09 -11.38592 70.84388 37890 ft 501 kts 234°
2026-05-08 20:10 -11.42803 70.78723 37889 ft 501 kts 235°
2026-05-08 20:10 -11.47011 70.73058 37890 ft 501 kts 234°
2026-05-08 20:11 -11.51217 70.67389 37889 ft 501 kts 234°
2026-05-08 20:11 -11.55427 70.61716 37891 ft 501 kts 234°
2026-05-08 20:12 -11.59605 70.56080 37890 ft 502 kts 234°
2026-05-08 20:12 -11.63812 70.50401 37885 ft 502 kts 234°
2026-05-08 20:13 -11.68020 70.44723 37889 ft 502 kts 235°
2026-05-08 20:13 -11.72225 70.39040 37917 ft 501 kts 235°
2026-05-08 20:14 -11.76426 70.33362 37915 ft 501 kts 235°
2026-05-08 20:14 -11.80624 70.27678 37910 ft 502 kts 235°
2026-05-08 20:15 -11.84825 70.21991 37921 ft 502 kts 235°
2026-05-08 20:15 -11.89028 70.16302 37903 ft 502 kts 235°
2026-05-08 20:16 -11.93233 70.10604 37898 ft 502 kts 235°
2026-05-08 20:16 -11.97436 70.04908 37922 ft 502 kts 235°
2026-05-08 20:17 -12.01636 69.99214 37944 ft 501 kts 235°
2026-05-08 20:17 -12.05825 69.93520 37925 ft 501 kts 235°
2026-05-08 20:18 -12.10015 69.87822 37917 ft 502 kts 235°
2026-05-08 20:18 -12.14207 69.82127 37896 ft 502 kts 235°
2026-05-08 20:19 -12.18402 69.76424 37903 ft 502 kts 235°
2026-05-08 20:19 -12.22594 69.70720 37909 ft 502 kts 235°
2026-05-08 20:20 -12.26784 69.65018 37928 ft 501 kts 235°
2026-05-08 20:20 -12.30962 69.59322 37951 ft 500 kts 235°
2026-05-08 20:21 -12.35138 69.53627 37933 ft 500 kts 235°
2026-05-08 20:21 -12.39314 69.47936 37930 ft 500 kts 235°
2026-05-08 20:22 -12.43480 69.42249 37931 ft 499 kts 235°
2026-05-08 20:22 -12.46939 69.37524 37928 ft 499 kts 235°
2026-05-08 20:23 -12.51798 69.30882 37956 ft 498 kts 235°
2026-05-08 20:23 -12.55951 69.25205 37957 ft 498 kts 235°
2026-05-08 20:24 -12.60099 69.19530 37937 ft 498 kts 236°
2026-05-08 20:24 -12.64210 69.13895 37935 ft 497 kts 236°
2026-05-08 20:25 -12.68352 69.08221 37934 ft 497 kts 236°
2026-05-08 20:25 -12.72488 69.02549 37961 ft 497 kts 236°
2026-05-08 20:26 -12.76620 68.96885 37944 ft 496 kts 236°
2026-05-08 20:26 -12.80749 68.91218 37934 ft 496 kts 236°
2026-05-08 20:27 -12.84870 68.85555 37937 ft 496 kts 236°
2026-05-08 20:27 -12.88991 68.79894 37946 ft 495 kts 236°
2026-05-08 20:28 -12.92410 68.75196 37939 ft 495 kts 236°
2026-05-08 20:28 -12.96548 68.69505 37952 ft 494 kts 236°
2026-05-08 20:29 -13.00620 68.63896 37951 ft 493 kts 236°
2026-05-08 20:29 -13.04713 68.58257 37955 ft 493 kts 236°
2026-05-08 20:30 -13.08801 68.52619 37953 ft 492 kts 236°
2026-05-08 20:30 -13.12884 68.46990 37950 ft 491 kts 236°
2026-05-08 20:31 -13.16958 68.41366 37956 ft 491 kts 236°
2026-05-08 20:31 -13.21030 68.35743 37953 ft 490 kts 236°
2026-05-08 20:32 -13.25098 68.30124 37959 ft 490 kts 236°
2026-05-08 20:32 -13.29157 68.24511 37955 ft 490 kts 236°
2026-05-08 20:33 -13.33214 68.18896 37955 ft 489 kts 236°
2026-05-08 20:33 -13.37268 68.13283 37959 ft 489 kts 236°
2026-05-08 20:34 -13.41318 68.07673 37961 ft 489 kts 236°
2026-05-08 20:35 -13.47387 67.99259 37964 ft 488 kts 236°
2026-05-08 20:35 -13.51426 67.93653 37967 ft 488 kts 236°
2026-05-08 20:36 -13.55462 67.88050 37964 ft 488 kts 236°
2026-05-08 20:36 -13.59496 67.82443 37968 ft 488 kts 236°
2026-05-08 20:37 -13.63532 67.76833 37947 ft 488 kts 236°
2026-05-08 20:37 -13.67566 67.71223 37944 ft 488 kts 236°
2026-05-08 20:38 -13.71596 67.65611 37946 ft 488 kts 236°
2026-05-08 20:38 -13.75624 67.59999 37948 ft 488 kts 236°
2026-05-08 20:39 -13.79652 67.54385 37946 ft 488 kts 236°
2026-05-08 20:39 -13.83653 67.48805 37947 ft 488 kts 237°
2026-05-08 20:40 -13.87676 67.43187 37947 ft 488 kts 236°
2026-05-08 20:40 -13.91706 67.37559 37944 ft 488 kts 236°
2026-05-08 20:41 -13.95731 67.31931 37935 ft 488 kts 236°
2026-05-08 20:41 -13.99758 67.26299 37947 ft 488 kts 236°
2026-05-08 20:42 -14.03786 67.20663 37947 ft 489 kts 237°
2026-05-08 20:42 -14.07813 67.15021 37946 ft 489 kts 237°
2026-05-08 20:43 -14.11843 67.09375 37945 ft 489 kts 237°
2026-05-08 20:43 -14.15872 67.03727 37951 ft 489 kts 237°
2026-05-08 20:44 -14.19901 66.98070 37950 ft 489 kts 237°
2026-05-08 20:44 -14.23926 66.92416 37952 ft 489 kts 237°
2026-05-08 20:45 -14.27950 66.86762 37953 ft 489 kts 237°
2026-05-08 20:45 -14.31973 66.81104 37957 ft 489 kts 237°
2026-05-08 20:46 -14.35994 66.75444 37960 ft 489 kts 237°
2026-05-08 20:46 -14.40012 66.69786 37961 ft 489 kts 237°
2026-05-08 20:47 -14.44027 66.64130 37962 ft 489 kts 237°
2026-05-08 20:47 -14.48038 66.58472 37965 ft 488 kts 237°
2026-05-08 20:48 -14.52016 66.52859 37985 ft 488 kts 237°
2026-05-08 20:49 -14.59845 66.41776 37980 ft 486 kts 237°
2026-05-08 20:49 -14.63830 66.36138 37986 ft 486 kts 237°
2026-05-08 20:50 -14.67812 66.30505 37988 ft 485 kts 237°
2026-05-08 20:50 -14.71793 66.24874 37985 ft 485 kts 237°
2026-05-08 20:51 -14.75764 66.19249 37988 ft 484 kts 237°
2026-05-08 20:51 -14.79728 66.13628 37992 ft 484 kts 237°
2026-05-08 20:52 -14.83689 66.08010 37992 ft 483 kts 237°
2026-05-08 20:52 -14.87638 66.02403 37990 ft 482 kts 237°
2026-05-08 20:53 -14.91582 65.96801 37989 ft 481 kts 236°
2026-05-08 20:53 -14.95516 65.91214 37989 ft 480 kts 236°
2026-05-08 20:54 -14.99438 65.85632 37999 ft 479 kts 236°
2026-05-08 20:54 -15.03358 65.80048 38000 ft 479 kts 236°
2026-05-08 20:55 -15.07275 65.74466 37995 ft 479 kts 236°
2026-05-08 20:55 -15.11168 65.68922 37991 ft 479 kts 236°
2026-05-08 20:56 -15.15085 65.63339 37996 ft 480 kts 236°
2026-05-08 20:56 -15.19001 65.57745 37998 ft 480 kts 236°
2026-05-08 20:57 -15.22920 65.52144 37975 ft 480 kts 236°
2026-05-08 20:57 -15.26836 65.46543 38000 ft 480 kts 236°
2026-05-08 20:58 -15.30749 65.40937 38000 ft 480 kts 235°
2026-05-08 20:58 -15.34661 65.35331 38001 ft 480 kts 235°
2026-05-08 20:59 -15.38573 65.29725 38003 ft 480 kts 235°
2026-05-08 20:59 -15.42481 65.24118 38006 ft 480 kts 235°
2026-05-08 21:00 -15.46388 65.18509 38006 ft 480 kts 235°
2026-05-08 21:00 -15.50294 65.12900 38012 ft 480 kts 235°
2026-05-08 21:01 -15.54193 65.07294 38007 ft 479 kts 235°
2026-05-08 21:01 -15.58090 65.01690 38005 ft 479 kts 235°
2026-05-08 21:02 -15.61977 64.96087 38007 ft 478 kts 236°
2026-05-08 21:02 -15.65852 64.90489 38007 ft 477 kts 236°
2026-05-08 21:03 -15.69700 64.84936 38016 ft 477 kts 236°
2026-05-08 21:03 -15.73574 64.79347 38021 ft 477 kts 236°
2026-05-08 21:04 -15.77446 64.73757 38010 ft 476 kts 236°
2026-05-08 21:04 -15.81309 64.68170 38009 ft 476 kts 236°
2026-05-08 21:05 -15.85170 64.62582 38016 ft 476 kts 236°
2026-05-08 21:05 -15.89032 64.56992 38017 ft 476 kts 236°
2026-05-08 21:06 -15.92892 64.51401 38017 ft 476 kts 236°
2026-05-08 21:06 -15.96754 64.45801 38009 ft 477 kts 236°
2026-05-08 21:07 -16.00614 64.40200 38018 ft 477 kts 236°
2026-05-08 21:07 -16.04471 64.34598 38018 ft 477 kts 236°
2026-05-08 21:08 -16.08304 64.29027 38019 ft 477 kts 236°
2026-05-08 21:08 -16.12163 64.23413 38026 ft 477 kts 236°
2026-05-08 21:09 -16.16023 64.17794 38025 ft 478 kts 235°
2026-05-08 21:09 -16.19885 64.12168 38025 ft 478 kts 235°
2026-05-08 21:10 -16.23750 64.06533 38031 ft 478 kts 235°
2026-05-08 21:10 -16.27614 64.00896 38026 ft 479 kts 235°
2026-05-08 21:11 -16.31481 63.95248 37990 ft 479 kts 235°
2026-05-08 21:11 -16.35342 63.89606 38028 ft 479 kts 235°
2026-05-08 21:12 -16.39206 63.83956 38031 ft 479 kts 235°
2026-05-08 21:12 -16.43070 63.78301 38034 ft 479 kts 235°
2026-05-08 21:13 -16.46934 63.72642 38025 ft 479 kts 235°
2026-05-08 21:13 -16.50795 63.66983 38027 ft 479 kts 235°
2026-05-08 21:14 -16.54656 63.61318 38036 ft 479 kts 235°
2026-05-08 21:14 -16.58511 63.55658 38041 ft 479 kts 235°
2026-05-08 21:15 -16.62367 63.49991 38036 ft 479 kts 235°
2026-05-08 21:15 -16.66222 63.44321 38042 ft 479 kts 235°
2026-05-08 21:16 -16.70050 63.38687 38045 ft 479 kts 235°
2026-05-08 21:16 -16.73898 63.33018 38044 ft 479 kts 236°
2026-05-08 21:17 -16.77748 63.27344 38042 ft 479 kts 236°
2026-05-08 21:17 -16.81593 63.21672 38048 ft 479 kts 236°
2026-05-08 21:18 -16.85437 63.15998 38053 ft 479 kts 236°
2026-05-08 21:18 -16.89280 63.10318 38046 ft 479 kts 236°
2026-05-08 21:19 -16.93119 63.04641 38051 ft 478 kts 236°
2026-05-08 21:19 -16.96956 62.98963 38046 ft 478 kts 236°
2026-05-08 21:20 -17.00790 62.93282 38049 ft 478 kts 236°
2026-05-08 21:20 -17.04622 62.87600 38051 ft 478 kts 236°
2026-05-08 21:21 -17.08455 62.81913 38060 ft 478 kts 236°
2026-05-08 21:21 -17.12286 62.76225 38049 ft 479 kts 236°
2026-05-08 21:22 -17.16117 62.70530 38059 ft 479 kts 236°
2026-05-08 21:22 -17.19949 62.64831 38063 ft 479 kts 236°
2026-05-08 21:23 -17.23775 62.59134 38064 ft 479 kts 236°
2026-05-08 21:23 -17.27580 62.53466 38049 ft 479 kts 236°
2026-05-08 21:24 -17.31412 62.47753 38054 ft 480 kts 236°
2026-05-08 21:24 -17.35241 62.42037 38059 ft 479 kts 236°
2026-05-08 21:25 -17.39068 62.36318 38050 ft 480 kts 236°
2026-05-08 21:25 -17.42896 62.30596 38062 ft 480 kts 236°
2026-05-08 21:26 -17.46728 62.24866 38064 ft 480 kts 236°
2026-05-08 21:26 -17.50555 62.19133 38059 ft 480 kts 236°
2026-05-08 21:27 -17.54384 62.13394 38059 ft 481 kts 236°
2026-05-08 21:27 -17.58215 62.07649 38060 ft 481 kts 236°
2026-05-08 21:28 -17.62041 62.01904 38065 ft 481 kts 236°
2026-05-08 21:28 -17.65871 61.96150 38072 ft 481 kts 236°
2026-05-08 21:29 -17.69697 61.90394 38059 ft 481 kts 236°
2026-05-08 21:29 -17.72905 61.85566 38058 ft 481 kts 236°
2026-05-08 21:30 -17.76729 61.79805 38065 ft 481 kts 236°
2026-05-08 21:30 -17.81177 61.73100 38067 ft 482 kts 236°
2026-05-08 21:31 -17.84352 61.68308 38074 ft 481 kts 236°
2026-05-08 21:31 -17.88177 61.62532 38075 ft 481 kts 236°
2026-05-08 21:32 -17.91995 61.56759 38066 ft 482 kts 236°
2026-05-08 21:32 -17.95815 61.50981 38067 ft 481 kts 236°
2026-05-08 21:33 -17.99632 61.45203 38074 ft 482 kts 236°
2026-05-08 21:33 -18.03450 61.39415 38073 ft 482 kts 236°
2026-05-08 21:34 -18.07266 61.33628 38068 ft 482 kts 236°
2026-05-08 21:34 -18.11079 61.27839 38071 ft 482 kts 236°
2026-05-08 21:35 -18.14889 61.22048 38062 ft 481 kts 236°
2026-05-08 21:35 -18.18696 61.16259 38062 ft 481 kts 236°
2026-05-08 21:36 -18.22499 61.10470 38071 ft 481 kts 236°
2026-05-08 21:36 -18.26302 61.04676 38072 ft 481 kts 236°
2026-05-08 21:37 -18.30100 60.98885 38076 ft 481 kts 236°
2026-05-08 21:37 -18.33897 60.93089 38074 ft 481 kts 236°
2026-05-08 21:38 -18.37690 60.87295 38061 ft 480 kts 236°
2026-05-08 21:38 -18.41455 60.81539 38068 ft 481 kts 236°
2026-05-08 21:39 -18.45242 60.75741 38066 ft 481 kts 236°
2026-05-08 21:39 -18.49028 60.69941 38084 ft 480 kts 236°
2026-05-08 21:40 -18.52813 60.64139 38093 ft 480 kts 237°
2026-05-08 21:40 -18.56595 60.58334 38091 ft 480 kts 237°
2026-05-08 21:41 -18.62267 60.49621 38066 ft 480 kts 237°
2026-05-08 21:41 -18.66045 60.43809 38070 ft 480 kts 237°
2026-05-08 21:42 -18.69821 60.37995 38093 ft 480 kts 237°
2026-05-08 21:42 -18.73592 60.32183 38095 ft 480 kts 237°
2026-05-08 21:43 -18.77365 60.26364 38083 ft 480 kts 237°
2026-05-08 21:43 -18.81136 60.20543 38072 ft 481 kts 237°
2026-05-08 21:44 -18.84905 60.14716 38079 ft 480 kts 237°
2026-05-08 21:44 -18.88671 60.08892 38090 ft 480 kts 237°
2026-05-08 21:45 -18.92436 60.03067 38086 ft 480 kts 237°
2026-05-08 21:45 -18.96198 59.97240 38084 ft 480 kts 237°
2026-05-08 21:46 -18.99957 59.91414 38076 ft 480 kts 237°
2026-05-08 21:46 -19.03716 59.85580 38077 ft 480 kts 237°
2026-05-08 21:47 -19.07476 59.79750 38090 ft 480 kts 237°
2026-05-08 21:47 -19.11243 59.73918 38102 ft 480 kts 237°
2026-05-08 21:48 -19.14979 59.68129 38100 ft 480 kts 237°
2026-05-08 21:48 -19.18739 59.62297 38081 ft 480 kts 237°
2026-05-08 21:49 -19.22497 59.56463 38083 ft 480 kts 237°
2026-05-08 21:49 -19.26253 59.50625 38089 ft 480 kts 237°
2026-05-08 21:50 -19.30004 59.44789 38101 ft 480 kts 237°
2026-05-08 21:50 -19.33758 59.38946 38092 ft 480 kts 237°
2026-05-08 21:51 -19.37507 59.33103 38081 ft 480 kts 237°
2026-05-08 21:51 -19.41254 59.27257 38089 ft 479 kts 237°
2026-05-08 21:52 -19.44996 59.21413 38087 ft 479 kts 237°
2026-05-08 21:52 -19.48739 59.15562 38093 ft 479 kts 237°
2026-05-08 21:53 -19.52474 59.09720 38090 ft 473 kts 237°
2026-05-08 21:53 -19.56104 59.04037 38038 ft 463 kts 237°
2026-05-08 21:54 -19.57909 59.01207 37798 ft 464 kts 237°
2026-05-08 21:54 -19.59718 58.98369 37538 ft 465 kts 237°
2026-05-08 21:54 -19.61531 58.95524 37295 ft 465 kts 237°
2026-05-08 21:54 -19.63344 58.92678 37050 ft 466 kts 237°
2026-05-08 21:55 -19.65134 58.89867 36798 ft 467 kts 237°
2026-05-08 21:55 -19.66952 58.87011 36552 ft 467 kts 237°
2026-05-08 21:55 -19.68772 58.84153 36308 ft 468 kts 237°
2026-05-08 21:56 -19.72417 58.78419 35823 ft 469 kts 237°
2026-05-08 21:56 -19.74243 58.75545 35586 ft 470 kts 237°
2026-05-08 21:56 -19.76071 58.72667 35376 ft 471 kts 237°
2026-05-08 21:56 -19.77902 58.69782 35136 ft 471 kts 237°
2026-05-08 21:57 -19.79733 58.66896 34840 ft 472 kts 237°
2026-05-08 21:57 -19.81567 58.64004 34183 ft 474 kts 237°
2026-05-08 21:57 -19.83415 58.61087 33045 ft 478 kts 237°
2026-05-08 21:57 -19.85283 58.58134 31710 ft 483 kts 236°
2026-05-08 21:58 -19.87160 58.55167 30536 ft 484 kts 236°
2026-05-08 21:58 -19.89029 58.52211 29535 ft 480 kts 236°
2026-05-08 21:58 -19.90885 58.49282 28781 ft 474 kts 236°
2026-05-08 21:58 -19.92707 58.46405 28274 ft 465 kts 236°
2026-05-08 21:59 -19.94491 58.43584 27801 ft 455 kts 236°
2026-05-08 21:59 -19.96245 58.40809 26990 ft 453 kts 236°
2026-05-08 21:59 -19.97998 58.38033 26352 ft 449 kts 236°
2026-05-08 21:59 -19.99735 58.35281 25638 ft 447 kts 236°
2026-05-08 22:00 -20.01459 58.32547 24954 ft 445 kts 236°
2026-05-08 22:00 -20.03175 58.29826 24277 ft 442 kts 236°
2026-05-08 22:00 -20.04851 58.27103 23601 ft 438 kts 239°
2026-05-08 22:00 -20.06351 58.24257 22377 ft 445 kts 241°
2026-05-08 22:01 -20.07801 58.21340 21399 ft 446 kts 242°
2026-05-08 22:01 -20.09248 58.18445 20734 ft 439 kts 241°
2026-05-08 22:01 -20.10730 58.15654 20260 ft 427 kts 239°
2026-05-08 22:01 -20.12225 58.12972 19796 ft 416 kts 238°
2026-05-08 22:02 -20.13711 58.10378 19340 ft 405 kts 238°
2026-05-08 22:02 -20.15175 58.07857 18890 ft 398 kts 238°
2026-05-08 22:02 -20.16636 58.05350 18438 ft 399 kts 237°
2026-05-08 22:02 -20.18094 58.02847 17945 ft 397 kts 237°
2026-05-08 22:03 -20.19542 58.00358 17425 ft 394 kts 237°
2026-05-08 22:03 -20.20961 57.97916 16939 ft 393 kts 237°
2026-05-08 22:03 -20.22395 57.95446 16444 ft 392 kts 237°
2026-05-08 22:03 -20.23824 57.92984 15971 ft 390 kts 237°
2026-05-08 22:04 -20.25246 57.90531 15493 ft 388 kts 237°
2026-05-08 22:04 -20.26661 57.88095 15027 ft 386 kts 237°
2026-05-08 22:04 -20.28071 57.85667 14564 ft 384 kts 237°
2026-05-08 22:04 -20.29470 57.83255 14101 ft 382 kts 237°
2026-05-08 22:05 -20.30807 57.80818 13610 ft 380 kts 243°
2026-05-08 22:05 -20.31534 57.78157 13111 ft 372 kts 262°
2026-05-08 22:05 -20.31432 57.75448 12619 ft 364 kts 281°
2026-05-08 22:05 -20.30531 57.72976 12140 ft 355 kts 299°
2026-05-08 22:06 -20.29239 57.70780 11648 ft 346 kts 304°
2026-05-08 22:06 -20.27936 57.68660 11190 ft 338 kts 303°
2026-05-08 22:06 -20.26738 57.66563 10701 ft 324 kts 300°
2026-05-08 22:06 -20.25661 57.64516 10244 ft 310 kts 298°
2026-05-08 22:07 -20.24673 57.62534 9765 ft 297 kts 297°
2026-05-08 22:07 -20.23747 57.60619 9262 ft 285 kts 297°
2026-05-08 22:07 -20.22856 57.58761 8768 ft 280 kts 297°
2026-05-08 22:07 -20.21980 57.56929 8259 ft 276 kts 298°
2026-05-08 22:08 -20.21192 57.55088 7771 ft 272 kts 286°
2026-05-08 22:08 -20.21064 57.53107 7300 ft 268 kts 260°
2026-05-08 22:08 -20.21709 57.51277 6842 ft 263 kts 236°
2026-05-08 22:08 -20.22763 57.49698 6371 ft 261 kts 229°
2026-05-08 22:09 -20.23888 57.48183 5875 ft 261 kts 229°
2026-05-08 22:09 -20.24976 57.46637 5394 ft 260 kts 230°
2026-05-08 22:09 -20.26314 57.45396 4911 ft 254 kts 204°
2026-05-08 22:09 -20.27973 57.44941 4402 ft 244 kts 176°
2026-05-08 22:10 -20.29566 57.45284 4225 ft 225 kts 156°
2026-05-08 22:10 -20.30978 57.45885 4116 ft 215 kts 152°
2026-05-08 22:10 -20.32215 57.46700 4015 ft 203 kts 134°
2026-05-08 22:10 -20.33075 57.47816 3974 ft 187 kts 120°
2026-05-08 22:11 -20.33711 57.49001 3985 ft 187 kts 116°
2026-05-08 22:11 -20.34305 57.50227 3983 ft 184 kts 115°
2026-05-08 22:11 -20.34894 57.51433 3882 ft 182 kts 116°
2026-05-08 22:11 -20.35468 57.52621 3627 ft 179 kts 115°
2026-05-08 22:12 -20.36018 57.53772 3356 ft 168 kts 116°
2026-05-08 22:12 -20.36534 57.54837 3107 ft 156 kts 115°
2026-05-08 22:12 -20.37004 57.55818 2875 ft 142 kts 115°
2026-05-08 22:12 -20.37443 57.56735 2624 ft 140 kts 115°
2026-05-08 22:13 -20.37884 57.57640 2411 ft 138 kts 116°
2026-05-08 22:13 -20.38333 57.58541 2231 ft 138 kts 115°
2026-05-08 22:13 -20.38771 57.59444 1969 ft 136 kts 114°
2026-05-08 22:13 -20.39192 57.60351 1761 ft 134 kts 112°
2026-05-08 22:14 -20.39601 57.61253 1549 ft 139 kts 114°
2026-05-08 22:14 -20.40031 57.62144 1379 ft 131 kts 116°
2026-05-08 22:14 -20.40461 57.63041 1183 ft 140 kts 114°
2026-05-08 22:14 -20.40882 57.63975 983 ft 138 kts 115°
2026-05-08 22:15 -20.41327 57.64881 713 ft 144 kts 116°
2026-05-08 22:15 -20.41809 57.65851 463 ft 148 kts 117°
2026-05-08 22:15 -20.42124 57.66499 354 ft 151 kts 117°
2026-05-08 22:15 -20.42605 57.67479 219 ft 149 kts 118°
2026-05-08 22:16 -20.43030 57.68363 194 ft 107 kts 116°
2026-05-08 22:16 -20.43288 57.68900 169 ft 68 kts 117°
2026-05-08 22:16 -20.43442 57.69218 149 ft 35 kts 117°
2026-05-08 22:16 -20.43520 57.69359 141 ft 19 kts 140°
2026-05-08 22:17 -20.43609 57.69348 145 ft 6 kts 206°
2026-05-08 22:17 -20.43625 57.69338 147 ft 1 kts 212°
2026-05-08 22:17 -20.43633 57.69332 148 ft 7 kts 212°
2026-05-08 22:17 -20.43659 57.69291 155 ft 4 kts 258°
2026-05-08 22:18 -20.43636 57.69214 161 ft 21 kts 297°
2026-05-08 22:18 -20.43569 57.69081 172 ft 19 kts 297°
2026-05-08 22:18 -20.43511 57.68963 177 ft 20 kts 298°
2026-05-08 22:18 -20.43440 57.68817 179 ft 23 kts 297°
2026-05-08 22:19 -20.43369 57.68670 182 ft 22 kts 297°
2026-05-08 22:19 -20.43299 57.68524 198 ft 22 kts 297°
2026-05-08 22:19 -20.43230 57.68382 190 ft 21 kts 297°
2026-05-08 22:19 -20.43170 57.68256 206 ft 16 kts 297°
2026-05-08 22:20 -20.43129 57.68150 200 ft 15 kts 276°
2026-05-08 22:20 -20.43186 57.68081 203 ft 11 kts 227°
2026-05-08 22:20 -20.43223 57.68019 200 ft 9 kts 239°
2026-05-08 22:20 -20.43252 57.67969 193 ft 7 kts 237°
2026-05-08 22:21 -20.43262 57.67952 202 ft 0 kts 237°